Wetterdaten: Freitag, 03.12.2021
Datum Zeit Temp. Aussen Temp. o. S. Temp +5cm Feuchte Auss Luftdruck Regen Sonnenschein Regendauer Solar Windben Empfang
03.12.2021 00:00 -0,5 C -1,7 C -2,2 C 95 % 1011,3 hPa 0,0 l/m 0 min 0 min 0 W/m 0,0 km/h (0 Bft) 95,74 %
03.12.2021 00:02 -0,5 C -1,7 C -2,2 C 95 % 1011,3 hPa 0,0 l/m 0 min 0 min 0 W/m 3,2 km/h (1 Bft) 89,47 %
03.12.2021 00:04 -0,5 C -1,7 C -2,2 C 96 % 1011,3 hPa 0,0 l/m 0 min 0 min 0 W/m 3,2 km/h (1 Bft) 91,49 %
03.12.2021 00:08 -0,6 C -1,7 C -2,2 C 96 % 1011,3 hPa 0,0 l/m 0 min 0 min 0 W/m 3,2 km/h (1 Bft) 96,81 %
03.12.2021 00:10 -0,6 C -1,7 C -2,2 C 96 % 1011,3 hPa 0,0 l/m 0 min 0 min 0 W/m 3,2 km/h (1 Bft) 97,87 %
03.12.2021 00:12 -0,6 C -1,7 C -2,2 C 96 % 1011,4 hPa 0,0 l/m 0 min 0 min 0 W/m 0,0 km/h (0 Bft) 97,83 %
03.12.2021 00:14 -0,6 C -1,7 C -2,2 C 96 % 1011,5 hPa 0,0 l/m 0 min 0 min 0 W/m 0,0 km/h (0 Bft) 97,87 %
03.12.2021 00:16 -0,6 C -1,7 C -2,2 C 95 % 1011,5 hPa 0,0 l/m 0 min 0 min 0 W/m 0,0 km/h (0 Bft) 97,87 %
03.12.2021 00:18 -0,6 C -1,7 C -2,2 C 95 % 1011,4 hPa 0,0 l/m 0 min 0 min 0 W/m 0,0 km/h (0 Bft) 95,74 %
03.12.2021 00:20 -0,6 C -1,7 C -2,2 C 95 % 1011,5 hPa 0,0 l/m 0 min 0 min 0 W/m 0,0 km/h (0 Bft) 97,87 %
03.12.2021 00:22 -0,6 C -1,7 C -2,2 C 95 % 1011,5 hPa 0,0 l/m 0 min 0 min 0 W/m 3,2 km/h (1 Bft) 95,74 %
03.12.2021 00:24 -0,6 C -1,7 C -2,2 C 95 % 1011,4 hPa 0,0 l/m 0 min 0 min 0 W/m 3,2 km/h (1 Bft) 97,83 %
03.12.2021 00:26 -0,7 C -1,7 C -2,2 C 95 % 1011,3 hPa 0,0 l/m 0 min 0 min 0 W/m 3,2 km/h (1 Bft) 97,87 %
03.12.2021 00:28 -0,7 C -1,7 C -2,2 C 95 % 1011,3 hPa 0,0 l/m 0 min 0 min 0 W/m 0,0 km/h (0 Bft) 97,87 %
03.12.2021 00:30 -0,7 C -1,7 C -2,2 C 95 % 1011,3 hPa 0,0 l/m 0 min 0 min 0 W/m 0,0 km/h (0 Bft) 97,87 %
03.12.2021 00:32 -0,7 C -1,7 C -2,2 C 95 % 1011,3 hPa 0,0 l/m 0 min 0 min 0 W/m 3,2 km/h (1 Bft) 100,00 %
03.12.2021 00:34 -0,7 C -1,7 C -2,2 C 95 % 1011,3 hPa 0,0 l/m 0 min 0 min 0 W/m 0,0 km/h (0 Bft) 100,00 %
03.12.2021 00:36 -0,7 C -1,7 C -2,2 C 95 % 1011,3 hPa 0,0 l/m 0 min 0 min 0 W/m 0,0 km/h (0 Bft) 100,00 %
03.12.2021 00:38 -0,7 C -1,7 C -2,2 C 96 % 1011,3 hPa 0,0 l/m 0 min 0 min 0 W/m 3,2 km/h (1 Bft) 100,00 %
03.12.2021 00:40 -0,7 C -1,7 C -2,2 C 96 % 1011,3 hPa 0,0 l/m 0 min 0 min 0 W/m 0,0 km/h (0 Bft) 100,00 %
03.12.2021 00:42 -0,7 C -1,7 C -2,2 C 96 % 1011,3 hPa 0,0 l/m 0 min 0 min 0 W/m 3,2 km/h (1 Bft) 100,00 %
03.12.2021 00:44 -0,7 C -1,7 C -2,2 C 95 % 1011,3 hPa 0,0 l/m 0 min 0 min 0 W/m 3,2 km/h (1 Bft) 100,00 %
03.12.2021 00:46 -0,7 C -1,7 C -2,2 C 95 % 1011,4 hPa 0,0 l/m 0 min 0 min 0 W/m 6,4 km/h (2 Bft) 95,74 %
03.12.2021 00:48 -0,7 C -1,7 C -2,2 C 96 % 1011,4 hPa 0,0 l/m 0 min 0 min 0 W/m 6,4 km/h (2 Bft) 100,00 %
03.12.2021 00:50 -0,7 C -1,7 C -2,2 C 96 % 1011,4 hPa 0,0 l/m 0 min 0 min 0 W/m 6,4 km/h (2 Bft) 100,00 %
03.12.2021 00:52 -0,7 C -1,7 C -2,2 C 96 % 1011,4 hPa 0,0 l/m 0 min 0 min 0 W/m 3,2 km/h (1 Bft) 100,00 %
03.12.2021 00:54 -0,7 C -1,7 C -2,2 C 96 % 1011,4 hPa 0,0 l/m 0 min 0 min 0 W/m 3,2 km/h (1 Bft) 97,87 %
03.12.2021 00:56 -0,7 C -1,7 C -2,2 C 96 % 1011,4 hPa 0,0 l/m 0 min 0 min 0 W/m 6,4 km/h (2 Bft) 95,74 %
03.12.2021 00:58 -0,7 C -1,7 C -2,2 C 96 % 1011,4 hPa 0,0 l/m 0 min 0 min 0 W/m 3,2 km/h (1 Bft) 97,83 %
03.12.2021 01:00 -0,7 C -1,1 C -2,2 C 96 % 1011,4 hPa 0,0 l/m 0 min 0 min 0 W/m 3,2 km/h (1 Bft) 95,74 %
03.12.2021 01:02 -0,6 C -1,1 C -2,2 C 96 % 1011,4 hPa 0,0 l/m 0 min 0 min 0 W/m 6,4 km/h (2 Bft) 95,74 %
03.12.2021 01:04 -0,6 C -1,1 C -2,2 C 96 % 1011,4 hPa 0,0 l/m 0 min 0 min 0 W/m 3,2 km/h (1 Bft) 97,87 %
03.12.2021 01:06 -0,6 C -1,1 C -2,2 C 96 % 1011,4 hPa 0,0 l/m 0 min 0 min 0 W/m 6,4 km/h (2 Bft) 97,96 %
03.12.2021 01:08 -0,6 C -1,1 C -2,2 C 96 % 1011,3 hPa 0,0 l/m 0 min 0 min 0 W/m 3,2 km/h (1 Bft) 97,87 %
03.12.2021 01:10 -0,6 C -1,1 C -2,2 C 96 % 1011,3 hPa 0,0 l/m 0 min 0 min 0 W/m 3,2 km/h (1 Bft) 97,83 %
03.12.2021 01:12 -0,6 C -1,1 C -2,2 C 96 % 1011,3 hPa 0,0 l/m 0 min 0 min 0 W/m 6,4 km/h (2 Bft) 95,74 %
03.12.2021 01:14 -0,6 C -1,1 C -2,2 C 96 % 1011,3 hPa 0,0 l/m 0 min 0 min 0 W/m 3,2 km/h (1 Bft) 97,62 %
03.12.2021 01:16 -0,6 C -1,1 C -2,2 C 96 % 1011,3 hPa 0,0 l/m 0 min 0 min 0 W/m 3,2 km/h (1 Bft) 97,96 %
03.12.2021 01:18 -0,6 C -1,1 C -2,2 C 96 % 1011,2 hPa 0,0 l/m 0 min 0 min 0 W/m 3,2 km/h (1 Bft) 98,00 %
03.12.2021 01:20 -0,6 C -1,1 C -2,2 C 96 % 1011,2 hPa 0,0 l/m 0 min 0 min 0 W/m 3,2 km/h (1 Bft) 97,87 %
03.12.2021 01:22 -0,6 C -1,1 C -2,2 C 96 % 1011,2 hPa 0,0 l/m 0 min 0 min 0 W/m 9,7 km/h (2 Bft) 100,00 %
03.12.2021 01:24 -0,6 C -1,1 C -2,2 C 96 % 1011,3 hPa 0,0 l/m 0 min 0 min 0 W/m 6,4 km/h (2 Bft) 100,00 %
03.12.2021 01:26 -0,5 C -1,1 C -1,7 C 96 % 1011,3 hPa 0,0 l/m 0 min 0 min 0 W/m 6,4 km/h (2 Bft) 100,00 %
03.12.2021 01:28 -0,5 C -1,1 C -1,7 C 96 % 1011,3 hPa 0,0 l/m 0 min 0 min 0 W/m 6,4 km/h (2 Bft) 100,00 %
03.12.2021 01:30 -0,5 C -1,1 C -1,7 C 96 % 1011,3 hPa 0,0 l/m 0 min 0 min 0 W/m 9,7 km/h (2 Bft) 100,00 %
03.12.2021 01:32 -0,5 C -1,1 C -1,7 C 96 % 1011,3 hPa 0,0 l/m 0 min 0 min 0 W/m 6,4 km/h (2 Bft) 100,00 %
03.12.2021 01:34 -0,5 C -1,1 C -1,7 C 96 % 1011,3 hPa 0,0 l/m 0 min 0 min 0 W/m 3,2 km/h (1 Bft) 100,00 %
03.12.2021 01:36 -0,5 C -1,1 C -1,7 C 96 % 1011,3 hPa 0,0 l/m 0 min 0 min 0 W/m 6,4 km/h (2 Bft) 100,00 %
03.12.2021 01:38 -0,5 C -1,1 C -1,7 C 96 % 1011,3 hPa 0,0 l/m 0 min 0 min 0 W/m 3,2 km/h (1 Bft) 95,74 %
03.12.2021 01:40 -0,4 C -1,1 C -1,7 C 96 % 1011,3 hPa 0,0 l/m 0 min 0 min 0 W/m 6,4 km/h (2 Bft) 100,00 %
03.12.2021 01:42 -0,4 C -1,1 C -1,7 C 96 % 1011,4 hPa 0,0 l/m 0 min 0 min 0 W/m 3,2 km/h (1 Bft) 100,00 %
03.12.2021 01:44 -0,4 C -1,1 C -1,7 C 96 % 1011,3 hPa 0,0 l/m 0 min 0 min 0 W/m 6,4 km/h (2 Bft) 100,00 %
03.12.2021 01:46 -0,4 C -1,1 C -1,7 C 96 % 1011,4 hPa 0,0 l/m 0 min 0 min 0 W/m 6,4 km/h (2 Bft) 100,00 %
03.12.2021 01:48 -0,4 C -1,1 C -1,7 C 96 % 1011,5 hPa 0,0 l/m 0 min 0 min 0 W/m 3,2 km/h (1 Bft) 100,00 %
03.12.2021 01:50 -0,4 C -1,1 C -1,7 C 96 % 1011,5 hPa 0,0 l/m 0 min 0 min 0 W/m 6,4 km/h (2 Bft) 100,00 %
03.12.2021 01:52 -0,4 C -1,1 C -1,7 C 96 % 1011,6 hPa 0,0 l/m 0 min 0 min 0 W/m 9,7 km/h (2 Bft) 97,87 %
03.12.2021 01:54 -0,4 C -1,1 C -1,7 C 96 % 1011,5 hPa 0,0 l/m 0 min 0 min 0 W/m 9,7 km/h (2 Bft) 100,00 %
03.12.2021 01:56 -0,3 C -0,6 C -1,7 C 96 % 1011,5 hPa 0,0 l/m 0 min 0 min 0 W/m 12,9 km/h (3 Bft) 100,00 %
03.12.2021 01:58 -0,2 C -0,6 C -1,7 C 96 % 1011,5 hPa 0,0 l/m 0 min 0 min 0 W/m 12,9 km/h (3 Bft) 100,00 %
03.12.2021 02:00 -0,1 C -0,6 C -1,7 C 96 % 1011,5 hPa 0,0 l/m 0 min 0 min 0 W/m 19,3 km/h (3 Bft) 97,87 %
03.12.2021 02:02 -0,1 C -0,6 C -1,7 C 96 % 1011,5 hPa 0,0 l/m 0 min 0 min 0 W/m 9,7 km/h (2 Bft) 97,87 %
03.12.2021 02:04 0,0 C -0,6 C -1,1 C 96 % 1011,5 hPa 0,0 l/m 0 min 0 min 0 W/m 16,1 km/h (3 Bft) 95,74 %
03.12.2021 02:06 0,0 C -0,6 C -1,1 C 96 % 1011,5 hPa 0,0 l/m 0 min 0 min 0 W/m 12,9 km/h (3 Bft) 97,87 %
03.12.2021 02:08 0,0 C -0,6 C -1,1 C 96 % 1011,6 hPa 0,0 l/m 0 min 0 min 0 W/m 12,9 km/h (3 Bft) 97,83 %
03.12.2021 02:10 0,0 C -0,6 C -1,1 C 96 % 1011,6 hPa 0,0 l/m 0 min 0 min 0 W/m 6,4 km/h (2 Bft) 97,87 %
03.12.2021 02:12 0,1 C -0,6 C -1,1 C 96 % 1011,6 hPa 0,0 l/m 0 min 0 min 0 W/m 6,4 km/h (2 Bft) 97,87 %
03.12.2021 02:14 0,1 C -0,6 C -1,1 C 96 % 1011,6 hPa 0,0 l/m 0 min 0 min 0 W/m 12,9 km/h (3 Bft) 97,87 %
03.12.2021 02:16 0,1 C -0,6 C -1,1 C 96 % 1011,6 hPa 0,0 l/m 0 min 0 min 0 W/m 6,4 km/h (2 Bft) 97,87 %
03.12.2021 02:18 0,1 C 0,0 C -1,1 C 96 % 1011,5 hPa 0,0 l/m 0 min 0 min 0 W/m 6,4 km/h (2 Bft) 97,87 %
03.12.2021 02:20 0,2 C 0,0 C -1,1 C 96 % 1011,6 hPa 0,0 l/m 0 min 0 min 0 W/m 6,4 km/h (2 Bft) 97,83 %
03.12.2021 02:22 0,2 C 0,0 C -1,1 C 96 % 1011,6 hPa 0,0 l/m 0 min 0 min 0 W/m 9,7 km/h (2 Bft) 95,74 %
03.12.2021 02:24 0,3 C 0,0 C -1,1 C 96 % 1011,7 hPa 0,0 l/m 0 min 0 min 0 W/m 12,9 km/h (3 Bft) 97,87 %
03.12.2021 02:26 0,3 C 0,0 C -1,1 C 96 % 1011,6 hPa 0,0 l/m 0 min 0 min 0 W/m 12,9 km/h (3 Bft) 97,87 %
03.12.2021 02:28 0,3 C 0,0 C -1,1 C 96 % 1011,6 hPa 0,0 l/m 0 min 0 min 0 W/m 12,9 km/h (3 Bft) 95,74 %
03.12.2021 02:30 0,3 C 0,0 C -1,1 C 96 % 1011,6 hPa 0,0 l/m 0 min 0 min 0 W/m 12,9 km/h (3 Bft) 95,74 %
03.12.2021 02:32 0,3 C 0,0 C -1,1 C 96 % 1011,6 hPa 0,0 l/m 0 min 0 min 0 W/m 12,9 km/h (3 Bft) 97,83 %
03.12.2021 02:34 0,4 C 0,0 C -1,1 C 96 % 1011,6 hPa 0,0 l/m 0 min 0 min 0 W/m 12,9 km/h (3 Bft) 95,74 %
03.12.2021 02:36 0,4 C 0,0 C -1,1 C 96 % 1011,6 hPa 0,0 l/m 0 min 0 min 0 W/m 9,7 km/h (2 Bft) 93,62 %
03.12.2021 02:38 0,4 C 0,0 C -1,1 C 96 % 1011,6 hPa 0,0 l/m 0 min 0 min 0 W/m 12,9 km/h (3 Bft) 93,62 %
03.12.2021 02:40 0,4 C 0,0 C -1,1 C 96 % 1011,6 hPa 0,0 l/m 0 min 0 min 0 W/m 9,7 km/h (2 Bft) 93,62 %
03.12.2021 02:42 0,4 C 0,0 C -1,1 C 96 % 1011,6 hPa 0,0 l/m 0 min 0 min 0 W/m 12,9 km/h (3 Bft) 93,62 %
03.12.2021 02:44 0,4 C 0,0 C -1,1 C 96 % 1011,6 hPa 0,0 l/m 0 min 0 min 0 W/m 12,9 km/h (3 Bft) 93,48 %
03.12.2021 02:46 0,5 C 0,0 C -1,1 C 96 % 1011,6 hPa 0,0 l/m 0 min 0 min 0 W/m 16,1 km/h (3 Bft) 93,62 %
03.12.2021 02:48 0,5 C 0,0 C -1,1 C 96 % 1011,7 hPa 0,0 l/m 0 min 0 min 0 W/m 9,7 km/h (2 Bft) 95,74 %
03.12.2021 02:50 0,5 C 0,0 C -0,6 C 96 % 1011,7 hPa 0,0 l/m 0 min 0 min 0 W/m 12,9 km/h (3 Bft) 97,87 %
03.12.2021 02:52 0,5 C 0,0 C -0,6 C 96 % 1011,7 hPa 0,0 l/m 0 min 0 min 0 W/m 6,4 km/h (2 Bft) 97,87 %
03.12.2021 02:54 0,5 C 0,0 C -0,6 C 96 % 1011,7 hPa 0,0 l/m 0 min 0 min 0 W/m 6,4 km/h (2 Bft) 91,49 %
03.12.2021 02:56 0,5 C 0,0 C -0,6 C 96 % 1011,8 hPa 0,0 l/m 0 min 0 min 0 W/m 6,4 km/h (2 Bft) 95,65 %
03.12.2021 02:58 0,5 C 0,0 C -0,6 C 96 % 1011,7 hPa 0,0 l/m 0 min 0 min 0 W/m 12,9 km/h (3 Bft) 95,74 %
03.12.2021 03:00 0,5 C 0,0 C -0,6 C 96 % 1011,8 hPa 0,0 l/m 0 min 0 min 0 W/m 9,7 km/h (2 Bft) 93,62 %
03.12.2021 03:02 0,5 C 0,0 C -0,6 C 96 % 1011,8 hPa 0,0 l/m 0 min 0 min 0 W/m 12,9 km/h (3 Bft) 95,74 %
03.12.2021 03:04 0,5 C 0,0 C -0,6 C 96 % 1011,8 hPa 0,0 l/m 0 min 0 min 0 W/m 6,4 km/h (2 Bft) 93,75 %
03.12.2021 03:06 0,5 C 0,0 C -0,6 C 96 % 1011,7 hPa 0,0 l/m 0 min 0 min 0 W/m 6,4 km/h (2 Bft) 95,74 %
03.12.2021 03:08 0,5 C 0,0 C -0,6 C 96 % 1011,7 hPa 0,0 l/m 0 min 0 min 0 W/m 6,4 km/h (2 Bft) 95,65 %
03.12.2021 03:10 0,6 C 0,6 C -0,6 C 96 % 1011,7 hPa 0,0 l/m 0 min 0 min 0 W/m 6,4 km/h (2 Bft) 93,62 %
03.12.2021 03:12 0,6 C 0,6 C -0,6 C 96 % 1011,8 hPa 0,0 l/m 0 min 0 min 0 W/m 16,1 km/h (3 Bft) 95,74 %
03.12.2021 03:14 0,6 C 0,6 C -0,6 C 96 % 1011,8 hPa 0,0 l/m 0 min 0 min 0 W/m 6,4 km/h (2 Bft) 97,87 %
03.12.2021 03:16 0,7 C 0,6 C -0,6 C 96 % 1011,7 hPa 0,2 l/m 0 min 0 min 0 W/m 6,4 km/h (2 Bft) 95,74 %
03.12.2021 03:18 0,7 C 0,6 C -0,6 C 96 % 1011,6 hPa 0,0 l/m 0 min 0 min 0 W/m 12,9 km/h (3 Bft) 97,83 %
03.12.2021 03:20 0,7 C 0,6 C -0,6 C 96 % 1011,6 hPa 0,0 l/m 0 min 0 min 0 W/m 12,9 km/h (3 Bft) 97,87 %
03.12.2021 03:22 0,8 C 0,6 C -0,6 C 96 % 1011,7 hPa 0,0 l/m 0 min 0 min 0 W/m 16,1 km/h (3 Bft) 97,87 %
03.12.2021 03:24 0,8 C 0,6 C -0,6 C 97 % 1011,7 hPa 0,0 l/m 0 min 0 min 0 W/m 6,4 km/h (2 Bft) 100,00 %
03.12.2021 03:26 0,8 C 0,6 C -0,6 C 97 % 1011,7 hPa 0,0 l/m 0 min 0 min 0 W/m 12,9 km/h (3 Bft) 97,87 %
03.12.2021 03:28 0,8 C 0,6 C -0,6 C 97 % 1011,8 hPa 0,0 l/m 0 min 0 min 0 W/m 16,1 km/h (3 Bft) 100,00 %
03.12.2021 03:30 0,8 C 0,6 C -0,6 C 97 % 1011,8 hPa 0,0 l/m 0 min 0 min 0 W/m 19,3 km/h (3 Bft) 100,00 %
03.12.2021 03:32 0,8 C 0,6 C -0,6 C 97 % 1011,8 hPa 0,0 l/m 0 min 0 min 0 W/m 29,0 km/h (5 Bft) 100,00 %
03.12.2021 03:34 0,9 C 0,6 C -0,6 C 97 % 1011,8 hPa 0,0 l/m 0 min 0 min 0 W/m 16,1 km/h (3 Bft) 97,87 %
03.12.2021 03:36 0,9 C 0,6 C -0,6 C 97 % 1011,8 hPa 0,0 l/m 0 min 0 min 0 W/m 25,7 km/h (4 Bft) 97,87 %
03.12.2021 03:38 0,9 C 0,6 C -0,6 C 97 % 1011,7 hPa 0,0 l/m 0 min 0 min 0 W/m 22,5 km/h (4 Bft) 100,00 %
03.12.2021 03:40 0,9 C 0,6 C -0,6 C 97 % 1011,7 hPa 0,0 l/m 0 min 0 min 0 W/m 16,1 km/h (3 Bft) 97,87 %
03.12.2021 03:42 0,9 C 0,6 C -0,6 C 97 % 1011,8 hPa 0,0 l/m 0 min 0 min 0 W/m 12,9 km/h (3 Bft) 100,00 %
03.12.2021 03:44 0,9 C 0,6 C -0,6 C 97 % 1011,8 hPa 0,0 l/m 0 min 0 min 0 W/m 16,1 km/h (3 Bft) 97,14 %
03.12.2021 03:46 0,9 C 0,6 C 0,0 C 97 % 1011,8 hPa 0,0 l/m 0 min 0 min 0 W/m 6,4 km/h (2 Bft) 100,00 %
03.12.2021 03:48 0,9 C 0,6 C -0,6 C 97 % 1011,8 hPa 0,0 l/m 0 min 0 min 0 W/m 12,9 km/h (3 Bft) 97,87 %
03.12.2021 03:50 0,9 C 0,6 C 0,0 C 97 % 1011,8 hPa 0,0 l/m 0 min 0 min 0 W/m 12,9 km/h (3 Bft) 100,00 %
03.12.2021 03:52 0,9 C 0,6 C 0,0 C 97 % 1011,7 hPa 0,0 l/m 0 min 0 min 0 W/m 12,9 km/h (3 Bft) 100,00 %
03.12.2021 03:54 0,9 C 0,6 C 0,0 C 97 % 1011,7 hPa 0,0 l/m 0 min 0 min 0 W/m 12,9 km/h (3 Bft) 100,00 %
03.12.2021 03:56 0,9 C 0,6 C 0,0 C 97 % 1011,7 hPa 0,0 l/m 0 min 0 min 0 W/m 16,1 km/h (3 Bft) 100,00 %
03.12.2021 03:58 0,9 C 0,6 C 0,0 C 97 % 1011,7 hPa 0,0 l/m 0 min 0 min 0 W/m 16,1 km/h (3 Bft) 100,00 %
03.12.2021 04:00 0,9 C 0,6 C 0,0 C 97 % 1011,8 hPa 0,0 l/m 0 min 0 min 0 W/m 12,9 km/h (3 Bft) 97,87 %
03.12.2021 04:02 0,9 C 0,6 C 0,0 C 97 % 1011,8 hPa 0,0 l/m 0 min 0 min 0 W/m 19,3 km/h (3 Bft) 100,00 %
03.12.2021 04:04 1,0 C 0,6 C 0,0 C 97 % 1011,7 hPa 0,0 l/m 0 min 0 min 0 W/m 16,1 km/h (3 Bft) 100,00 %
03.12.2021 04:06 1,0 C 0,6 C 0,0 C 97 % 1011,8 hPa 0,0 l/m 0 min 0 min 0 W/m 12,9 km/h (3 Bft) 100,00 %
03.12.2021 04:08 1,0 C 0,6 C 0,0 C 97 % 1011,9 hPa 0,0 l/m 0 min 0 min 0 W/m 19,3 km/h (3 Bft) 100,00 %
03.12.2021 04:10 1,0 C 0,6 C 0,0 C 97 % 1011,9 hPa 0,0 l/m 0 min 0 min 0 W/m 6,4 km/h (2 Bft) 97,87 %
03.12.2021 04:12 1,0 C 0,6 C 0,0 C 97 % 1011,9 hPa 0,0 l/m 0 min 0 min 0 W/m 9,7 km/h (2 Bft) 97,87 %
03.12.2021 04:14 1,0 C 0,6 C 0,0 C 97 % 1012,0 hPa 0,0 l/m 0 min 0 min 0 W/m 6,4 km/h (2 Bft) 100,00 %
03.12.2021 04:16 1,0 C 0,6 C 0,0 C 97 % 1011,9 hPa 0,0 l/m 0 min 0 min 0 W/m 12,9 km/h (3 Bft) 100,00 %
03.12.2021 04:18 1,0 C 0,6 C 0,0 C 97 % 1012,0 hPa 0,0 l/m 0 min 0 min 0 W/m 6,4 km/h (2 Bft) 97,83 %
03.12.2021 04:20 1,0 C 0,6 C 0,0 C 97 % 1012,0 hPa 0,0 l/m 0 min 0 min 0 W/m 12,9 km/h (3 Bft) 97,87 %
03.12.2021 04:22 1,0 C 0,6 C 0,0 C 97 % 1012,0 hPa 0,0 l/m 0 min 0 min 0 W/m 12,9 km/h (3 Bft) 97,87 %
03.12.2021 04:24 1,0 C 0,6 C 0,0 C 97 % 1011,9 hPa 0,0 l/m 0 min 0 min 0 W/m 6,4 km/h (2 Bft) 100,00 %
03.12.2021 04:26 1,0 C 0,6 C 0,0 C 97 % 1011,9 hPa 0,0 l/m 0 min 0 min 0 W/m 6,4 km/h (2 Bft) 95,74 %
03.12.2021 04:28 1,0 C 0,6 C 0,0 C 97 % 1011,9 hPa 0,0 l/m 0 min 0 min 0 W/m 9,7 km/h (2 Bft) 97,87 %
03.12.2021 04:30 1,0 C 0,6 C 0,0 C 97 % 1011,9 hPa 0,0 l/m 0 min 0 min 0 W/m 12,9 km/h (3 Bft) 97,83 %
03.12.2021 04:32 1,1 C 0,6 C 0,0 C 97 % 1011,8 hPa 0,0 l/m 0 min 0 min 0 W/m 6,4 km/h (2 Bft) 95,74 %
03.12.2021 04:34 1,1 C 0,6 C 0,0 C 97 % 1011,8 hPa 0,0 l/m 0 min 0 min 0 W/m 16,1 km/h (3 Bft) 95,74 %
03.12.2021 04:36 1,1 C 0,6 C 0,0 C 97 % 1011,8 hPa 0,0 l/m 0 min 0 min 0 W/m 22,5 km/h (4 Bft) 95,74 %
03.12.2021 04:38 1,1 C 0,6 C 0,0 C 97 % 1011,8 hPa 0,0 l/m 0 min 0 min 0 W/m 9,7 km/h (2 Bft) 95,74 %
03.12.2021 04:40 1,1 C 0,6 C 0,0 C 97 % 1011,7 hPa 0,0 l/m 0 min 0 min 0 W/m 6,4 km/h (2 Bft) 93,62 %
03.12.2021 04:42 1,1 C 0,6 C 0,0 C 97 % 1011,6 hPa 0,0 l/m 0 min 0 min 0 W/m 6,4 km/h (2 Bft) 95,65 %
03.12.2021 04:44 1,1 C 0,6 C 0,0 C 97 % 1011,6 hPa 0,0 l/m 0 min 0 min 0 W/m 16,1 km/h (3 Bft) 93,62 %
03.12.2021 04:46 1,1 C 0,6 C 0,0 C 97 % 1011,6 hPa 0,0 l/m 0 min 0 min 0 W/m 9,7 km/h (2 Bft) 95,74 %
03.12.2021 04:48 1,1 C 0,6 C 0,0 C 97 % 1011,6 hPa 0,0 l/m 0 min 0 min 0 W/m 16,1 km/h (3 Bft) 95,74 %
03.12.2021 04:50 1,1 C 0,6 C 0,0 C 97 % 1011,6 hPa 0,0 l/m 0 min 0 min 0 W/m 6,4 km/h (2 Bft) 95,74 %
03.12.2021 04:52 1,1 C 0,6 C 0,0 C 97 % 1011,8 hPa 0,0 l/m 0 min 0 min 0 W/m 12,9 km/h (3 Bft) 91,49 %
03.12.2021 04:54 1,1 C 0,6 C 0,0 C 97 % 1011,7 hPa 0,0 l/m 0 min 0 min 0 W/m 6,4 km/h (2 Bft) 95,65 %
03.12.2021 04:56 1,1 C 0,6 C 0,0 C 97 % 1011,6 hPa 0,0 l/m 0 min 0 min 0 W/m 12,9 km/h (3 Bft) 95,74 %
03.12.2021 04:58 1,1 C 0,6 C 0,0 C 97 % 1011,6 hPa 0,0 l/m 0 min 0 min 0 W/m 12,9 km/h (3 Bft) 95,74 %
03.12.2021 05:00 1,1 C 0,6 C 0,0 C 97 % 1011,6 hPa 0,0 l/m 0 min 0 min 0 W/m 12,9 km/h (3 Bft) 95,74 %
03.12.2021 05:02 1,1 C 0,6 C 0,0 C 97 % 1011,6 hPa 0,0 l/m 0 min 0 min 0 W/m 6,4 km/h (2 Bft) 95,74 %
03.12.2021 05:04 1,1 C 0,6 C 0,0 C 97 % 1011,6 hPa 0,0 l/m 0 min 0 min 0 W/m 12,9 km/h (3 Bft) 95,74 %
03.12.2021 05:06 1,1 C 0,6 C 0,0 C 97 % 1011,6 hPa 0,0 l/m 0 min 0 min 0 W/m 9,7 km/h (2 Bft) 100,00 %
03.12.2021 05:08 1,1 C 1,1 C 0,0 C 97 % 1011,5 hPa 0,0 l/m 0 min 0 min 0 W/m 6,4 km/h (2 Bft) 100,00 %
03.12.2021 05:10 1,2 C 1,1 C 0,0 C 97 % 1011,5 hPa 0,0 l/m 0 min 0 min 0 W/m 6,4 km/h (2 Bft) 100,00 %
03.12.2021 05:12 1,2 C 1,1 C 0,0 C 97 % 1011,5 hPa 0,0 l/m 0 min 0 min 0 W/m 9,7 km/h (2 Bft) 100,00 %
03.12.2021 05:14 1,2 C 1,1 C 0,0 C 97 % 1011,5 hPa 0,0 l/m 0 min 0 min 0 W/m 9,7 km/h (2 Bft) 97,87 %
03.12.2021 05:16 1,2 C 1,1 C 0,0 C 97 % 1011,5 hPa 0,0 l/m 0 min 0 min 0 W/m 19,3 km/h (3 Bft) 100,00 %
03.12.2021 05:18 1,3 C 1,1 C 0,0 C 97 % 1011,4 hPa 0,0 l/m 0 min 0 min 0 W/m 9,7 km/h (2 Bft) 100,00 %
03.12.2021 05:20 1,3 C 1,1 C 0,0 C 97 % 1011,4 hPa 0,0 l/m 0 min 0 min 0 W/m 12,9 km/h (3 Bft) 100,00 %
03.12.2021 05:22 1,3 C 1,1 C 0,0 C 97 % 1011,3 hPa 0,0 l/m 0 min 0 min 0 W/m 12,9 km/h (3 Bft) 100,00 %
03.12.2021 05:24 1,3 C 1,1 C 0,0 C 97 % 1011,4 hPa 0,0 l/m 0 min 0 min 0 W/m 6,4 km/h (2 Bft) 100,00 %
03.12.2021 05:26 1,3 C 1,1 C 0,0 C 97 % 1011,4 hPa 0,0 l/m 0 min 0 min 0 W/m 22,5 km/h (4 Bft) 100,00 %
03.12.2021 05:28 1,3 C 1,1 C 0,0 C 97 % 1011,4 hPa 0,0 l/m 0 min 0 min 0 W/m 12,9 km/h (3 Bft) 100,00 %
03.12.2021 05:30 1,3 C 1,1 C 0,0 C 97 % 1011,3 hPa 0,0 l/m 0 min 0 min 0 W/m 12,9 km/h (3 Bft) 97,87 %
03.12.2021 05:32 1,3 C 1,1 C 0,0 C 97 % 1011,4 hPa 0,0 l/m 0 min 0 min 0 W/m 25,7 km/h (4 Bft) 100,00 %
03.12.2021 05:34 1,3 C 1,1 C 0,0 C 97 % 1011,4 hPa 0,0 l/m 0 min 0 min 0 W/m 16,1 km/h (3 Bft) 100,00 %
03.12.2021 05:36 1,3 C 1,1 C 0,0 C 97 % 1011,3 hPa 0,0 l/m 0 min 0 min 0 W/m 9,7 km/h (2 Bft) 97,87 %
03.12.2021 05:38 1,3 C 1,1 C 0,0 C 97 % 1011,2 hPa 0,0 l/m 0 min 0 min 0 W/m 12,9 km/h (3 Bft) 97,87 %
03.12.2021 05:40 1,3 C 1,1 C 0,0 C 97 % 1011,3 hPa 0,0 l/m 0 min 0 min 0 W/m 9,7 km/h (2 Bft) 97,83 %
03.12.2021 05:42 1,3 C 1,1 C 0,6 C 97 % 1011,2 hPa 0,0 l/m 0 min 0 min 0 W/m 16,1 km/h (3 Bft) 97,87 %
03.12.2021 05:44 1,3 C 1,1 C 0,0 C 97 % 1011,2 hPa 0,0 l/m 0 min 0 min 0 W/m 16,1 km/h (3 Bft) 97,87 %
03.12.2021 05:46 1,3 C 1,1 C 0,6 C 97 % 1011,3 hPa 0,0 l/m 0 min 0 min 0 W/m 12,9 km/h (3 Bft) 97,87 %
03.12.2021 05:48 1,3 C 1,1 C 0,6 C 97 % 1011,2 hPa 0,0 l/m 0 min 0 min 0 W/m 19,3 km/h (3 Bft) 95,74 %
03.12.2021 05:50 1,3 C 1,1 C 0,6 C 97 % 1011,3 hPa 0,0 l/m 0 min 0 min 0 W/m 16,1 km/h (3 Bft) 93,62 %
03.12.2021 05:52 1,3 C 1,1 C 0,6 C 97 % 1011,2 hPa 0,0 l/m 0 min 0 min 0 W/m 12,9 km/h (3 Bft) 97,83 %
03.12.2021 05:54 1,3 C 1,1 C 0,6 C 96 % 1011,2 hPa 0,0 l/m 0 min 0 min 0 W/m 19,3 km/h (3 Bft) 95,74 %
03.12.2021 05:56 1,4 C 1,1 C 0,6 C 96 % 1011,2 hPa 0,0 l/m 0 min 0 min 0 W/m 12,9 km/h (3 Bft) 97,87 %
03.12.2021 05:58 1,4 C 1,1 C 0,6 C 96 % 1011,2 hPa 0,0 l/m 0 min 0 min 0 W/m 12,9 km/h (3 Bft) 97,87 %
03.12.2021 06:00 1,4 C 1,1 C 0,6 C 97 % 1011,2 hPa 0,0 l/m 0 min 0 min 0 W/m 12,9 km/h (3 Bft) 97,87 %
03.12.2021 06:02 1,4 C 1,1 C 0,6 C 97 % 1011,3 hPa 0,0 l/m 0 min 0 min 0 W/m 9,7 km/h (2 Bft) 93,88 %
03.12.2021 06:04 1,4 C 1,1 C 0,6 C 97 % 1011,3 hPa 0,0 l/m 0 min 0 min 0 W/m 12,9 km/h (3 Bft) 97,83 %
03.12.2021 06:08 1,4 C 1,1 C 0,6 C 97 % 1011,4 hPa 0,0 l/m 0 min 0 min 0 W/m 9,7 km/h (2 Bft) 94,74 %
03.12.2021 06:10 1,4 C 1,1 C 0,6 C 97 % 1011,4 hPa 0,0 l/m 0 min 0 min 0 W/m 12,9 km/h (3 Bft) 93,62 %
03.12.2021 06:12 1,4 C 1,1 C 0,6 C 97 % 1011,3 hPa 0,0 l/m 0 min 0 min 0 W/m 12,9 km/h (3 Bft) 97,87 %
03.12.2021 06:14 1,4 C 1,1 C 0,6 C 97 % 1011,4 hPa 0,0 l/m 0 min 0 min 0 W/m 12,9 km/h (3 Bft) 95,65 %
03.12.2021 06:16 1,4 C 1,1 C 0,6 C 97 % 1011,4 hPa 0,0 l/m 0 min 0 min 0 W/m 12,9 km/h (3 Bft) 93,62 %
03.12.2021 06:18 1,4 C 1,1 C 0,6 C 97 % 1011,4 hPa 0,0 l/m 0 min 0 min 0 W/m 9,7 km/h (2 Bft) 97,87 %
03.12.2021 06:20 1,5 C 1,1 C 0,6 C 97 % 1011,4 hPa 0,0 l/m 0 min 0 min 0 W/m 16,1 km/h (3 Bft) 97,87 %
03.12.2021 06:22 1,5 C 1,1 C 0,6 C 97 % 1011,4 hPa 0,0 l/m 0 min 0 min 0 W/m 6,4 km/h (2 Bft) 97,87 %
03.12.2021 06:24 1,5 C 1,1 C 0,6 C 97 % 1011,4 hPa 0,0 l/m 0 min 0 min 0 W/m 16,1 km/h (3 Bft) 95,74 %
03.12.2021 06:26 1,5 C 1,1 C 0,6 C 97 % 1011,4 hPa 0,0 l/m 0 min 0 min 0 W/m 16,1 km/h (3 Bft) 95,65 %
03.12.2021 06:28 1,5 C 1,1 C 0,6 C 97 % 1011,3 hPa 0,0 l/m 0 min 0 min 0 W/m 12,9 km/h (3 Bft) 93,62 %
03.12.2021 06:30 1,5 C 1,1 C 0,6 C 96 % 1011,3 hPa 0,0 l/m 0 min 0 min 0 W/m 12,9 km/h (3 Bft) 97,87 %
03.12.2021 06:32 1,5 C 1,1 C 0,6 C 96 % 1011,3 hPa 0,0 l/m 0 min 0 min 0 W/m 12,9 km/h (3 Bft) 97,87 %
03.12.2021 06:34 1,5 C 1,1 C 0,6 C 96 % 1011,4 hPa 0,0 l/m 0 min 0 min 0 W/m 12,9 km/h (3 Bft) 95,74 %
03.12.2021 06:36 1,6 C 1,1 C 0,6 C 96 % 1011,4 hPa 0,0 l/m 0 min 0 min 0 W/m 16,1 km/h (3 Bft) 95,74 %
03.12.2021 06:38 1,6 C 1,1 C 0,6 C 96 % 1011,4 hPa 0,0 l/m 0 min 0 min 0 W/m 29,0 km/h (5 Bft) 97,83 %
03.12.2021 06:40 1,6 C 1,1 C 0,6 C 96 % 1011,4 hPa 0,0 l/m 0 min 0 min 0 W/m 16,1 km/h (3 Bft) 95,74 %
03.12.2021 06:42 1,6 C 1,1 C 0,6 C 96 % 1011,4 hPa 0,0 l/m 0 min 0 min 0 W/m 16,1 km/h (3 Bft) 97,87 %
03.12.2021 06:44 1,6 C 1,1 C 0,6 C 96 % 1011,4 hPa 0,0 l/m 0 min 0 min 0 W/m 6,4 km/h (2 Bft) 95,74 %
03.12.2021 06:46 1,6 C 1,1 C 0,6 C 96 % 1011,4 hPa 0,0 l/m 0 min 0 min 0 W/m 12,9 km/h (3 Bft) 95,74 %
03.12.2021 06:48 1,7 C 1,1 C 0,6 C 96 % 1011,4 hPa 0,0 l/m 0 min 0 min 0 W/m 6,4 km/h (2 Bft) 47,50 %
03.12.2021 06:50 1,7 C 1,1 C 0,6 C 96 % 1011,4 hPa 0,0 l/m 0 min 0 min 0 W/m 16,1 km/h (3 Bft) 95,65 %
03.12.2021 06:52 1,7 C 1,1 C 0,6 C 97 % 1011,4 hPa 0,0 l/m 0 min 0 min 0 W/m 12,9 km/h (3 Bft) 93,62 %
03.12.2021 06:54 1,8 C 1,7 C 0,6 C 97 % 1011,5 hPa 0,0 l/m 0 min 0 min 0 W/m 25,7 km/h (4 Bft) 95,74 %
03.12.2021 06:56 1,8 C 1,7 C 0,6 C 97 % 1011,4 hPa 0,0 l/m 0 min 0 min 0 W/m 16,1 km/h (3 Bft) 95,74 %
03.12.2021 06:58 1,8 C 1,7 C 0,6 C 97 % 1011,4 hPa 0,0 l/m 0 min 0 min 0 W/m 9,7 km/h (2 Bft) 97,87 %
03.12.2021 07:00 1,8 C 1,7 C 0,6 C 97 % 1011,4 hPa 0,0 l/m 0 min 0 min 0 W/m 16,1 km/h (3 Bft) 97,87 %
03.12.2021 07:02 1,8 C 1,7 C 0,6 C 97 % 1011,5 hPa 0,0 l/m 0 min 0 min 0 W/m 16,1 km/h (3 Bft) 97,83 %
03.12.2021 07:04 1,8 C 1,7 C 0,6 C 96 % 1011,4 hPa 0,0 l/m 0 min 0 min 0 W/m 16,1 km/h (3 Bft) 95,74 %
03.12.2021 07:06 1,9 C 1,7 C 0,6 C 96 % 1011,4 hPa 0,0 l/m 0 min 0 min 0 W/m 12,9 km/h (3 Bft) 95,74 %
03.12.2021 07:08 1,9 C 1,7 C 1,1 C 96 % 1011,4 hPa 0,0 l/m 0 min 0 min 0 W/m 9,7 km/h (2 Bft) 97,87 %
03.12.2021 07:10 1,9 C 1,7 C 1,1 C 96 % 1011,4 hPa 0,0 l/m 0 min 0 min 0 W/m 12,9 km/h (3 Bft) 97,87 %
03.12.2021 07:12 1,9 C 1,7 C 1,1 C 96 % 1011,4 hPa 0,0 l/m 0 min 0 min 0 W/m 9,7 km/h (2 Bft) 97,83 %
03.12.2021 07:14 1,9 C 1,7 C 1,1 C 96 % 1011,4 hPa 0,0 l/m 0 min 0 min 0 W/m 12,9 km/h (3 Bft) 95,74 %
03.12.2021 07:16 1,9 C 1,7 C 1,1 C 96 % 1011,4 hPa 0,0 l/m 0 min 0 min 0 W/m 12,9 km/h (3 Bft) 95,74 %
03.12.2021 07:18 1,9 C 1,7 C 1,1 C 96 % 1011,4 hPa 0,0 l/m 0 min 0 min 0 W/m 16,1 km/h (3 Bft) 97,87 %
03.12.2021 07:20 1,9 C 1,7 C 1,1 C 96 % 1011,4 hPa 0,0 l/m 0 min 0 min 0 W/m 12,9 km/h (3 Bft) 100,00 %
03.12.2021 07:22 2,0 C 1,7 C 1,1 C 96 % 1011,4 hPa 0,0 l/m 0 min 0 min 0 W/m 16,1 km/h (3 Bft) 97,87 %
03.12.2021 07:24 2,0 C 1,7 C 1,1 C 96 % 1011,4 hPa 0,0 l/m 0 min 0 min 0 W/m 19,3 km/h (3 Bft) 97,87 %
03.12.2021 07:26 2,0 C 1,7 C 1,1 C 96 % 1011,5 hPa 0,0 l/m 0 min 0 min 0 W/m 25,7 km/h (4 Bft) 95,65 %
03.12.2021 07:28 2,0 C 1,7 C 1,1 C 96 % 1011,6 hPa 0,0 l/m 0 min 0 min 0 W/m 16,1 km/h (3 Bft) 97,87 %
03.12.2021 07:30 2,0 C 1,7 C 1,1 C 96 % 1011,4 hPa 0,0 l/m 0 min 0 min 0 W/m 12,9 km/h (3 Bft) 97,87 %
03.12.2021 07:32 2,0 C 1,7 C 1,1 C 96 % 1011,4 hPa 0,0 l/m 0 min 0 min 0 W/m 16,1 km/h (3 Bft) 100,00 %
03.12.2021 07:34 2,0 C 1,7 C 1,1 C 96 % 1011,5 hPa 0,0 l/m 0 min 0 min 0 W/m 9,7 km/h (2 Bft) 97,87 %
03.12.2021 07:36 2,0 C 1,7 C 1,1 C 96 % 1011,4 hPa 0,0 l/m 0 min 0 min 0 W/m 12,9 km/h (3 Bft) 93,48 %
03.12.2021 07:38 2,1 C 1,7 C 1,1 C 96 % 1011,4 hPa 0,0 l/m 0 min 0 min 0 W/m 19,3 km/h (3 Bft) 97,87 %
03.12.2021 07:40 2,1 C 1,7 C 1,1 C 96 % 1011,3 hPa 0,0 l/m 0 min 0 min 0 W/m 19,3 km/h (3 Bft) 97,87 %
03.12.2021 07:42 2,1 C 1,7 C 1,1 C 96 % 1011,3 hPa 0,0 l/m 0 min 0 min 0 W/m 6,4 km/h (2 Bft) 100,00 %
03.12.2021 07:44 2,1 C 1,7 C 1,1 C 96 % 1011,3 hPa 0,0 l/m 0 min 0 min 0 W/m 12,9 km/h (3 Bft) 95,74 %
03.12.2021 07:46 2,1 C 1,7 C 1,1 C 96 % 1011,2 hPa 0,0 l/m 0 min 0 min 0 W/m 12,9 km/h (3 Bft) 100,00 %
03.12.2021 07:48 2,1 C 1,7 C 1,1 C 96 % 1011,3 hPa 0,0 l/m 0 min 0 min 0 W/m 12,9 km/h (3 Bft) 97,83 %
03.12.2021 07:50 2,1 C 1,7 C 1,1 C 96 % 1011,3 hPa 0,0 l/m 0 min 0 min 0 W/m 19,3 km/h (3 Bft) 95,74 %
03.12.2021 07:52 2,1 C 1,7 C 1,1 C 96 % 1011,2 hPa 0,0 l/m 0 min 0 min 0 W/m 19,3 km/h (3 Bft) 100,00 %
03.12.2021 07:54 2,1 C 1,7 C 1,1 C 96 % 1011,2 hPa 0,0 l/m 0 min 0 min 0 W/m 19,3 km/h (3 Bft) 97,87 %
03.12.2021 07:56 2,2 C 1,7 C 1,1 C 96 % 1011,2 hPa 0,0 l/m 0 min 0 min 0 W/m 22,5 km/h (4 Bft) 100,00 %
03.12.2021 07:58 2,2 C 2,2 C 1,1 C 96 % 1011,2 hPa 0,0 l/m 0 min 0 min 0 W/m 19,3 km/h (3 Bft) 97,87 %
03.12.2021 08:00 2,2 C 1,7 C 1,1 C 96 % 1011,2 hPa 0,0 l/m 0 min 0 min 0 W/m 16,1 km/h (3 Bft) 100,00 %
03.12.2021 08:02 2,2 C 1,7 C 1,1 C 96 % 1011,2 hPa 0,0 l/m 0 min 0 min 0 W/m 12,9 km/h (3 Bft) 100,00 %
03.12.2021 08:04 2,2 C 1,7 C 1,1 C 96 % 1011,2 hPa 0,0 l/m 0 min 0 min 0 W/m 16,1 km/h (3 Bft) 97,87 %
03.12.2021 08:06 2,2 C 1,7 C 1,1 C 96 % 1011,2 hPa 0,0 l/m 0 min 0 min 0 W/m 19,3 km/h (3 Bft) 95,74 %
03.12.2021 08:08 2,2 C 1,7 C 1,1 C 96 % 1011,2 hPa 0,0 l/m 0 min 0 min 0 W/m 16,1 km/h (3 Bft) 95,74 %
03.12.2021 08:10 2,2 C 1,7 C 1,1 C 96 % 1011,2 hPa 0,0 l/m 0 min 0 min 0 W/m 16,1 km/h (3 Bft) 100,00 %
03.12.2021 08:12 2,2 C 1,7 C 1,1 C 96 % 1011,1 hPa 0,0 l/m 0 min 0 min 0 W/m 16,1 km/h (3 Bft) 95,65 %
03.12.2021 08:14 2,2 C 1,7 C 1,1 C 96 % 1011,2 hPa 0,0 l/m 0 min 0 min 0 W/m 22,5 km/h (4 Bft) 100,00 %
03.12.2021 08:16 2,2 C 1,7 C 1,1 C 96 % 1011,2 hPa 0,0 l/m 0 min 0 min 0 W/m 16,1 km/h (3 Bft) 97,87 %
03.12.2021 08:18 2,2 C 1,7 C 1,1 C 96 % 1011,1 hPa 0,0 l/m 0 min 0 min 0 W/m 9,7 km/h (2 Bft) 97,87 %
03.12.2021 08:20 2,2 C 1,7 C 1,1 C 96 % 1011,2 hPa 0,0 l/m 0 min 0 min 0 W/m 12,9 km/h (3 Bft) 97,87 %
03.12.2021 08:22 2,2 C 1,7 C 1,1 C 96 % 1011,2 hPa 0,0 l/m 0 min 0 min 0 W/m 12,9 km/h (3 Bft) 95,74 %
03.12.2021 08:24 2,2 C 1,7 C 1,1 C 96 % 1011,3 hPa 0,0 l/m 0 min 0 min 0 W/m 16,1 km/h (3 Bft) 97,83 %
03.12.2021 08:26 2,2 C 1,7 C 1,1 C 96 % 1011,4 hPa 0,0 l/m 0 min 0 min 0 W/m 25,7 km/h (4 Bft) 97,87 %
03.12.2021 08:28 2,1 C 1,7 C 1,1 C 96 % 1011,3 hPa 0,0 l/m 0 min 0 min 4 W/m 12,9 km/h (3 Bft) 97,87 %
03.12.2021 08:30 2,1 C 1,7 C 1,1 C 95 % 1011,3 hPa 0,0 l/m 0 min 0 min 5 W/m 22,5 km/h (4 Bft) 97,87 %
03.12.2021 08:32 2,1 C 1,7 C 1,1 C 95 % 1011,2 hPa 0,0 l/m 0 min 0 min 5 W/m 16,1 km/h (3 Bft) 97,87 %
03.12.2021 08:34 2,1 C 1,7 C 1,1 C 95 % 1011,2 hPa 0,0 l/m 0 min 0 min 5 W/m 16,1 km/h (3 Bft) 97,87 %
03.12.2021 08:36 2,1 C 1,7 C 1,1 C 95 % 1011,1 hPa 0,0 l/m 0 min 0 min 4 W/m 22,5 km/h (4 Bft) 97,83 %
03.12.2021 08:38 2,1 C 1,7 C 1,1 C 95 % 1011,1 hPa 0,0 l/m 0 min 0 min 0 W/m 12,9 km/h (3 Bft) 97,87 %
03.12.2021 08:40 2,1 C 1,7 C 1,1 C 95 % 1011,1 hPa 0,0 l/m 0 min 0 min 2 W/m 12,9 km/h (3 Bft) 97,87 %
03.12.2021 08:42 2,1 C 1,7 C 1,1 C 95 % 1011,0 hPa 0,0 l/m 0 min 0 min 5 W/m 19,3 km/h (3 Bft) 97,87 %
03.12.2021 08:44 2,1 C 1,7 C 1,1 C 95 % 1011,1 hPa 0,0 l/m 0 min 0 min 6 W/m 19,3 km/h (3 Bft) 97,87 %
03.12.2021 08:46 2,1 C 1,7 C 1,1 C 95 % 1011,1 hPa 0,0 l/m 0 min 0 min 8 W/m 22,5 km/h (4 Bft) 97,83 %
03.12.2021 08:48 2,1 C 1,7 C 1,1 C 95 % 1011,1 hPa 0,0 l/m 0 min 0 min 9 W/m 9,7 km/h (2 Bft) 97,87 %
03.12.2021 08:50 2,1 C 1,7 C 1,1 C 95 % 1011,1 hPa 0,0 l/m 0 min 0 min 7 W/m 16,1 km/h (3 Bft) 97,87 %
03.12.2021 08:52 2,1 C 1,7 C 1,1 C 95 % 1011,1 hPa 0,0 l/m 0 min 0 min 7 W/m 9,7 km/h (2 Bft) 97,87 %
03.12.2021 08:54 2,1 C 1,7 C 1,1 C 94 % 1011,1 hPa 0,0 l/m 0 min 0 min 9 W/m 19,3 km/h (3 Bft) 97,87 %
03.12.2021 08:56 2,1 C 1,7 C 1,1 C 94 % 1011,1 hPa 0,0 l/m 0 min 0 min 11 W/m 19,3 km/h (3 Bft) 97,87 %
03.12.2021 08:58 2,1 C 1,7 C 1,1 C 94 % 1011,0 hPa 0,0 l/m 0 min 0 min 11 W/m 22,5 km/h (4 Bft) 97,83 %
03.12.2021 09:00 2,1 C 1,7 C 1,1 C 94 % 1011,1 hPa 0,0 l/m 0 min 0 min 12 W/m 25,7 km/h (4 Bft) 97,87 %
03.12.2021 09:02 2,1 C 1,7 C 1,1 C 94 % 1011,1 hPa 0,0 l/m 0 min 0 min 12 W/m 16,1 km/h (3 Bft) 97,87 %
03.12.2021 09:04 2,1 C 1,7 C 1,1 C 94 % 1011,1 hPa 0,0 l/m 0 min 0 min 14 W/m 12,9 km/h (3 Bft) 93,62 %
03.12.2021 09:06 2,1 C 1,7 C 1,1 C 94 % 1011,1 hPa 0,0 l/m 0 min 0 min 16 W/m 16,1 km/h (3 Bft) 97,87 %
03.12.2021 09:08 2,1 C 1,7 C 1,1 C 93 % 1011,1 hPa 0,0 l/m 0 min 0 min 16 W/m 19,3 km/h (3 Bft) 97,87 %
03.12.2021 09:10 2,1 C 1,7 C 1,1 C 93 % 1011,1 hPa 0,0 l/m 0 min 0 min 18 W/m 19,3 km/h (3 Bft) 97,83 %
03.12.2021 09:12 2,1 C 1,7 C 1,1 C 93 % 1011,1 hPa 0,0 l/m 0 min 0 min 19 W/m 16,1 km/h (3 Bft) 95,74 %
03.12.2021 09:14 2,1 C 2,2 C 1,1 C 93 % 1011,1 hPa 0,0 l/m 0 min 0 min 21 W/m 16,1 km/h (3 Bft) 95,74 %
03.12.2021 09:16 2,2 C 2,2 C 1,1 C 93 % 1011,1 hPa 0,0 l/m 0 min 0 min 23 W/m 16,1 km/h (3 Bft) 93,62 %
03.12.2021 09:18 2,2 C 2,2 C 1,1 C 93 % 1011,2 hPa 0,0 l/m 0 min 0 min 23 W/m 16,1 km/h (3 Bft) 95,74 %
03.12.2021 09:20 2,2 C 2,2 C 1,1 C 92 % 1011,3 hPa 0,0 l/m 0 min 0 min 23 W/m 16,1 km/h (3 Bft) 91,49 %
03.12.2021 09:22 2,2 C 2,2 C 1,1 C 92 % 1011,3 hPa 0,0 l/m 0 min 0 min 25 W/m 6,4 km/h (2 Bft) 95,65 %
03.12.2021 09:24 2,2 C 2,2 C 1,1 C 92 % 1011,3 hPa 0,0 l/m 0 min 0 min 29 W/m 16,1 km/h (3 Bft) 95,74 %
03.12.2021 09:26 2,3 C 2,2 C 1,1 C 92 % 1011,2 hPa 0,0 l/m 0 min 0 min 31 W/m 16,1 km/h (3 Bft) 95,74 %
03.12.2021 09:28 2,3 C 2,2 C 1,1 C 92 % 1011,2 hPa 0,0 l/m 0 min 0 min 34 W/m 19,3 km/h (3 Bft) 91,49 %
03.12.2021 09:30 2,3 C 2,2 C 1,1 C 92 % 1011,1 hPa 0,0 l/m 0 min 0 min 33 W/m 19,3 km/h (3 Bft) 95,74 %
03.12.2021 09:32 2,3 C 2,2 C 1,1 C 92 % 1011,2 hPa 0,0 l/m 0 min 0 min 29 W/m 25,7 km/h (4 Bft) 93,62 %
03.12.2021 09:34 2,3 C 2,2 C 1,1 C 92 % 1011,2 hPa 0,0 l/m 0 min 0 min 25 W/m 19,3 km/h (3 Bft) 95,65 %
03.12.2021 09:36 2,4 C 2,2 C 1,1 C 91 % 1011,2 hPa 0,0 l/m 0 min 0 min 25 W/m 16,1 km/h (3 Bft) 93,62 %
03.12.2021 09:38 2,4 C 2,2 C 1,1 C 91 % 1011,2 hPa 0,0 l/m 0 min 0 min 28 W/m 19,3 km/h (3 Bft) 93,62 %
03.12.2021 09:40 2,4 C 2,2 C 1,1 C 91 % 1011,2 hPa 0,0 l/m 0 min 0 min 34 W/m 19,3 km/h (3 Bft) 95,74 %
03.12.2021 09:42 2,4 C 2,2 C 1,1 C 91 % 1011,2 hPa 0,0 l/m 0 min 0 min 40 W/m 19,3 km/h (3 Bft) 95,74 %
03.12.2021 09:44 2,4 C 2,2 C 1,1 C 91 % 1011,1 hPa 0,0 l/m 0 min 0 min 45 W/m 12,9 km/h (3 Bft) 97,87 %
03.12.2021 09:46 2,4 C 2,2 C 1,1 C 91 % 1011,1 hPa 0,0 l/m 0 min 0 min 50 W/m 19,3 km/h (3 Bft) 97,83 %
03.12.2021 09:48 2,5 C 2,2 C 1,1 C 91 % 1011,0 hPa 0,0 l/m 0 min 0 min 59 W/m 12,9 km/h (3 Bft) 97,87 %
03.12.2021 09:50 2,5 C 2,2 C 1,1 C 91 % 1011,0 hPa 0,0 l/m 0 min 0 min 60 W/m 12,9 km/h (3 Bft) 95,74 %
03.12.2021 09:52 2,5 C 2,2 C 1,7 C 91 % 1011,0 hPa 0,0 l/m 0 min 0 min 58 W/m 25,7 km/h (4 Bft) 95,74 %
03.12.2021 09:54 2,5 C 2,2 C 1,7 C 90 % 1011,0 hPa 0,0 l/m 0 min 0 min 56 W/m 22,5 km/h (4 Bft) 97,87 %
03.12.2021 09:56 2,5 C 2,8 C 1,7 C 90 % 1011,0 hPa 0,0 l/m 0 min 0 min 59 W/m 25,7 km/h (4 Bft) 100,00 %
03.12.2021 09:58 2,6 C 2,8 C 1,7 C 90 % 1011,0 hPa 0,0 l/m 0 min 0 min 65 W/m 29,0 km/h (5 Bft) 100,00 %
03.12.2021 10:00 2,6 C 2,8 C 1,7 C 90 % 1011,0 hPa 0,0 l/m 0 min 0 min 74 W/m 25,7 km/h (4 Bft) 95,74 %
03.12.2021 10:02 2,6 C 2,8 C 1,7 C 90 % 1011,0 hPa 0,0 l/m 0 min 0 min 74 W/m 16,1 km/h (3 Bft) 100,00 %
03.12.2021 10:04 2,6 C 2,8 C 1,7 C 90 % 1011,0 hPa 0,0 l/m 0 min 0 min 68 W/m 16,1 km/h (3 Bft) 100,00 %
03.12.2021 10:06 2,7 C 2,8 C 1,7 C 90 % 1010,9 hPa 0,0 l/m 0 min 0 min 63 W/m 9,7 km/h (2 Bft) 97,96 %
03.12.2021 10:08 2,7 C 2,8 C 1,7 C 90 % 1010,9 hPa 0,0 l/m 0 min 0 min 56 W/m 29,0 km/h (5 Bft) 97,83 %
03.12.2021 10:10 2,8 C 2,8 C 1,7 C 90 % 1010,9 hPa 0,0 l/m 0 min 0 min 53 W/m 25,7 km/h (4 Bft) 97,87 %
03.12.2021 10:12 2,8 C 2,8 C 1,7 C 90 % 1010,9 hPa 0,0 l/m 0 min 0 min 54 W/m 12,9 km/h (3 Bft) 97,87 %
03.12.2021 10:14 2,8 C 2,8 C 1,7 C 89 % 1010,9 hPa 0,0 l/m 0 min 0 min 61 W/m 25,7 km/h (4 Bft) 100,00 %
03.12.2021 10:16 2,8 C 2,8 C 1,7 C 90 % 1010,9 hPa 0,0 l/m 0 min 0 min 65 W/m 29,0 km/h (5 Bft) 97,87 %
03.12.2021 10:18 2,9 C 2,8 C 1,7 C 89 % 1010,9 hPa 0,0 l/m 0 min 0 min 64 W/m 29,0 km/h (5 Bft) 97,87 %
03.12.2021 10:20 2,9 C 2,8 C 1,7 C 89 % 1010,9 hPa 0,0 l/m 0 min 0 min 62 W/m 22,5 km/h (4 Bft) 97,83 %
03.12.2021 10:22 2,9 C 2,8 C 1,7 C 89 % 1010,9 hPa 0,0 l/m 0 min 0 min 63 W/m 29,0 km/h (5 Bft) 95,74 %
03.12.2021 10:24 2,9 C 2,8 C 1,7 C 89 % 1011,0 hPa 0,0 l/m 0 min 0 min 66 W/m 22,5 km/h (4 Bft) 97,87 %
03.12.2021 10:26 3,0 C 2,8 C 1,7 C 89 % 1011,0 hPa 0,0 l/m 0 min 0 min 67 W/m 25,7 km/h (4 Bft) 100,00 %
03.12.2021 10:28 3,0 C 2,8 C 1,7 C 89 % 1011,0 hPa 0,0 l/m 0 min 0 min 69 W/m 25,7 km/h (4 Bft) 100,00 %
03.12.2021 10:30 3,0 C 2,8 C 1,7 C 89 % 1011,0 hPa 0,0 l/m 0 min 0 min 70 W/m 19,3 km/h (3 Bft) 100,00 %
03.12.2021 10:32 3,0 C 2,8 C 1,7 C 89 % 1011,1 hPa 0,0 l/m 0 min 0 min 70 W/m 32,2 km/h (5 Bft) 100,00 %
03.12.2021 10:34 3,0 C 2,8 C 1,7 C 89 % 1011,0 hPa 0,0 l/m 0 min 0 min 66 W/m 35,4 km/h (5 Bft) 97,87 %
03.12.2021 10:36 3,1 C 2,8 C 1,7 C 88 % 1011,0 hPa 0,0 l/m 0 min 0 min 62 W/m 19,3 km/h (3 Bft) 95,74 %
03.12.2021 10:38 3,1 C 2,8 C 1,7 C 88 % 1010,9 hPa 0,0 l/m 0 min 0 min 64 W/m 19,3 km/h (3 Bft) 95,74 %
03.12.2021 10:40 3,1 C 2,8 C 1,7 C 88 % 1010,9 hPa 0,0 l/m 0 min 0 min 67 W/m 22,5 km/h (4 Bft) 100,00 %
03.12.2021 10:42 3,1 C 2,8 C 1,7 C 88 % 1010,8 hPa 0,0 l/m 0 min 0 min 68 W/m 25,7 km/h (4 Bft) 100,00 %
03.12.2021 10:44 3,1 C 2,8 C 1,7 C 88 % 1010,8 hPa 0,0 l/m 0 min 0 min 66 W/m 29,0 km/h (5 Bft) 100,00 %
03.12.2021 10:46 3,1 C 2,8 C 1,7 C 88 % 1010,8 hPa 0,0 l/m 0 min 0 min 72 W/m 29,0 km/h (5 Bft) 97,87 %
03.12.2021 10:48 3,2 C 3,3 C 1,7 C 88 % 1010,8 hPa 0,0 l/m 0 min 0 min 80 W/m 22,5 km/h (4 Bft) 97,87 %
03.12.2021 10:50 3,2 C 3,3 C 1,7 C 88 % 1010,8 hPa 0,0 l/m 0 min 0 min 83 W/m 22,5 km/h (4 Bft) 97,87 %
03.12.2021 10:52 3,3 C 3,3 C 1,7 C 88 % 1010,9 hPa 0,0 l/m 0 min 0 min 82 W/m 32,2 km/h (5 Bft) 100,00 %
03.12.2021 10:54 3,3 C 3,3 C 1,7 C 87 % 1010,9 hPa 0,0 l/m 0 min 0 min 84 W/m 25,7 km/h (4 Bft) 95,74 %
03.12.2021 10:56 3,3 C 3,3 C 1,7 C 87 % 1010,9 hPa 0,0 l/m 0 min 0 min 89 W/m 22,5 km/h (4 Bft) 100,00 %
03.12.2021 10:58 3,3 C 3,3 C 1,7 C 87 % 1010,8 hPa 0,0 l/m 0 min 0 min 96 W/m 29,0 km/h (5 Bft) 100,00 %
03.12.2021 11:00 3,3 C 3,3 C 1,7 C 87 % 1010,9 hPa 0,0 l/m 0 min 0 min 103 W/m 25,7 km/h (4 Bft) 100,00 %
03.12.2021 11:02 3,4 C 3,3 C 1,7 C 87 % 1010,8 hPa 0,0 l/m 0 min 0 min 99 W/m 32,2 km/h (5 Bft) 97,87 %
03.12.2021 11:04 3,4 C 3,3 C 2,2 C 87 % 1010,8 hPa 0,0 l/m 0 min 0 min 88 W/m 19,3 km/h (3 Bft) 100,00 %
03.12.2021 11:06 3,4 C 3,3 C 2,2 C 87 % 1010,7 hPa 0,0 l/m 0 min 0 min 76 W/m 19,3 km/h (3 Bft) 100,00 %
03.12.2021 11:08 3,4 C 3,3 C 1,7 C 87 % 1010,8 hPa 0,0 l/m 0 min 0 min 72 W/m 29,0 km/h (5 Bft) 97,87 %
03.12.2021 11:10 3,4 C 3,3 C 1,7 C 86 % 1010,8 hPa 0,0 l/m 0 min 0 min 80 W/m 29,0 km/h (5 Bft) 100,00 %
03.12.2021 11:12 3,4 C 3,3 C 1,7 C 86 % 1010,8 hPa 0,0 l/m 0 min 0 min 79 W/m 25,7 km/h (4 Bft) 97,83 %
03.12.2021 11:14 3,4 C 3,3 C 1,7 C 86 % 1010,8 hPa 0,0 l/m 0 min 0 min 79 W/m 25,7 km/h (4 Bft) 100,00 %
03.12.2021 11:16 3,4 C 3,3 C 1,7 C 86 % 1010,7 hPa 0,0 l/m 0 min 0 min 83 W/m 32,2 km/h (5 Bft) 97,87 %
03.12.2021 11:18 3,4 C 3,3 C 1,7 C 86 % 1010,7 hPa 0,0 l/m 0 min 0 min 84 W/m 12,9 km/h (3 Bft) 100,00 %
03.12.2021 11:20 3,4 C 3,3 C 1,7 C 86 % 1010,7 hPa 0,0 l/m 0 min 0 min 82 W/m 25,7 km/h (4 Bft) 100,00 %
03.12.2021 11:22 3,4 C 3,3 C 1,7 C 86 % 1010,6 hPa 0,0 l/m 0 min 0 min 76 W/m 25,7 km/h (4 Bft) 100,00 %
03.12.2021 11:24 3,4 C 3,3 C 1,7 C 86 % 1010,6 hPa 0,0 l/m 0 min 0 min 72 W/m 19,3 km/h (3 Bft) 100,00 %
03.12.2021 11:26 3,4 C 3,3 C 1,7 C 86 % 1010,6 hPa 0,0 l/m 0 min 0 min 73 W/m 19,3 km/h (3 Bft) 100,00 %
03.12.2021 11:28 3,4 C 3,3 C 1,7 C 86 % 1010,5 hPa 0,0 l/m 0 min 0 min 77 W/m 35,4 km/h (5 Bft) 100,00 %
03.12.2021 11:30 3,5 C 3,3 C 1,7 C 86 % 1010,5 hPa 0,0 l/m 0 min 0 min 77 W/m 25,7 km/h (4 Bft) 100,00 %
03.12.2021 11:32 3,4 C 3,3 C 1,7 C 86 % 1010,5 hPa 0,0 l/m 0 min 0 min 76 W/m 25,7 km/h (4 Bft) 100,00 %
03.12.2021 11:34 3,5 C 3,3 C 1,7 C 86 % 1010,5 hPa 0,0 l/m 0 min 0 min 79 W/m 25,7 km/h (4 Bft) 100,00 %
03.12.2021 11:36 3,5 C 3,3 C 1,7 C 86 % 1010,5 hPa 0,0 l/m 0 min 0 min 83 W/m 25,7 km/h (4 Bft) 100,00 %
03.12.2021 11:38 3,5 C 3,3 C 1,7 C 85 % 1010,3 hPa 0,0 l/m 0 min 0 min 84 W/m 22,5 km/h (4 Bft) 100,00 %
03.12.2021 11:40 3,5 C 3,3 C 1,7 C 85 % 1010,4 hPa 0,0 l/m 0 min 0 min 79 W/m 25,7 km/h (4 Bft) 97,87 %
03.12.2021 11:42 3,5 C 3,3 C 1,7 C 85 % 1010,3 hPa 0,0 l/m 0 min 0 min 69 W/m 16,1 km/h (3 Bft) 100,00 %
03.12.2021 11:44 3,5 C 3,3 C 1,7 C 85 % 1010,2 hPa 0,0 l/m 0 min 0 min 66 W/m 25,7 km/h (4 Bft) 100,00 %
03.12.2021 11:46 3,5 C 3,3 C 1,7 C 86 % 1010,2 hPa 0,0 l/m 0 min 0 min 67 W/m 19,3 km/h (3 Bft) 100,00 %
03.12.2021 11:48 3,5 C 3,3 C 1,7 C 85 % 1010,2 hPa 0,0 l/m 0 min 0 min 65 W/m 29,0 km/h (5 Bft) 97,87 %
03.12.2021 11:50 3,5 C 3,3 C 1,7 C 85 % 1010,1 hPa 0,0 l/m 0 min 0 min 65 W/m 29,0 km/h (5 Bft) 95,74 %
03.12.2021 11:52 3,5 C 3,3 C 1,7 C 85 % 1010,0 hPa 0,0 l/m 0 min 0 min 65 W/m 35,4 km/h (5 Bft) 97,87 %
03.12.2021 11:54 3,5 C 3,3 C 1,7 C 86 % 1009,9 hPa 0,0 l/m 0 min 0 min 67 W/m 29,0 km/h (5 Bft) 97,87 %
03.12.2021 11:56 3,5 C 3,3 C 1,7 C 85 % 1009,9 hPa 0,0 l/m 0 min 0 min 65 W/m 32,2 km/h (5 Bft) 95,74 %
03.12.2021 11:58 3,6 C 3,3 C 1,7 C 85 % 1009,8 hPa 0,0 l/m 0 min 0 min 62 W/m 32,2 km/h (5 Bft) 95,65 %
03.12.2021 12:00 3,6 C 3,3 C 1,7 C 85 % 1009,8 hPa 0,0 l/m 0 min 0 min 62 W/m 45,1 km/h (6 Bft) 93,62 %
03.12.2021 12:02 3,6 C 3,3 C 1,7 C 85 % 1009,8 hPa 0,0 l/m 0 min 0 min 63 W/m 35,4 km/h (5 Bft) 95,74 %
03.12.2021 12:04 3,6 C 3,3 C 1,7 C 85 % 1009,8 hPa 0,0 l/m 0 min 0 min 62 W/m 41,8 km/h (6 Bft) 93,62 %
03.12.2021 12:08 3,6 C 3,3 C 1,7 C 85 % 1009,8 hPa 0,0 l/m 0 min 0 min 69 W/m 25,7 km/h (4 Bft) 94,68 %
03.12.2021 12:10 3,6 C 3,3 C 1,7 C 85 % 1009,8 hPa 0,0 l/m 0 min 0 min 76 W/m 25,7 km/h (4 Bft) 93,48 %
03.12.2021 12:12 3,6 C 3,3 C 1,7 C 85 % 1009,8 hPa 0,0 l/m 0 min 0 min 75 W/m 29,0 km/h (5 Bft) 91,49 %
03.12.2021 12:14 3,7 C 3,3 C 1,7 C 85 % 1009,8 hPa 0,0 l/m 0 min 0 min 70 W/m 22,5 km/h (4 Bft) 91,49 %
03.12.2021 12:16 3,7 C 3,3 C 1,7 C 85 % 1009,7 hPa 0,0 l/m 0 min 0 min 58 W/m 29,0 km/h (5 Bft) 93,62 %
03.12.2021 12:18 3,7 C 3,3 C 1,7 C 85 % 1009,7 hPa 0,0 l/m 0 min 0 min 55 W/m 38,6 km/h (5 Bft) 91,49 %
03.12.2021 12:20 3,7 C 3,3 C 1,7 C 84 % 1009,6 hPa 0,0 l/m 0 min 0 min 71 W/m 25,7 km/h (4 Bft) 93,62 %
03.12.2021 12:22 3,8 C 3,3 C 1,7 C 84 % 1009,5 hPa 0,0 l/m 0 min 0 min 82 W/m 22,5 km/h (4 Bft) 93,48 %
03.12.2021 12:24 3,8 C 3,9 C 1,7 C 84 % 1009,4 hPa 0,0 l/m 0 min 0 min 84 W/m 38,6 km/h (5 Bft) 91,49 %
03.12.2021 12:26 3,8 C 3,9 C 1,7 C 84 % 1009,4 hPa 0,0 l/m 0 min 0 min 83 W/m 29,0 km/h (5 Bft) 93,62 %
03.12.2021 12:28 3,8 C 3,9 C 1,7 C 84 % 1009,4 hPa 0,0 l/m 0 min 0 min 82 W/m 16,1 km/h (3 Bft) 93,62 %
03.12.2021 12:30 3,9 C 3,9 C 1,7 C 84 % 1009,4 hPa 0,0 l/m 0 min 0 min 74 W/m 19,3 km/h (3 Bft) 93,62 %
03.12.2021 12:32 3,9 C 3,9 C 1,7 C 84 % 1009,3 hPa 0,0 l/m 0 min 0 min 74 W/m 29,0 km/h (5 Bft) 93,62 %
03.12.2021 12:34 3,9 C 3,9 C 1,7 C 84 % 1009,4 hPa 0,0 l/m 0 min 0 min 73 W/m 41,8 km/h (6 Bft) 93,48 %
03.12.2021 12:36 3,9 C 3,9 C 2,2 C 84 % 1009,3 hPa 0,0 l/m 0 min 0 min 71 W/m 19,3 km/h (3 Bft) 93,62 %
03.12.2021 12:38 3,9 C 3,9 C 1,7 C 84 % 1009,2 hPa 0,0 l/m 0 min 0 min 71 W/m 32,2 km/h (5 Bft) 95,74 %
03.12.2021 12:40 4,0 C 3,9 C 2,2 C 84 % 1009,2 hPa 0,0 l/m 0 min 0 min 69 W/m 25,7 km/h (4 Bft) 95,74 %
03.12.2021 12:42 4,0 C 3,9 C 2,2 C 84 % 1009,2 hPa 0,0 l/m 0 min 0 min 68 W/m 22,5 km/h (4 Bft) 95,74 %
03.12.2021 12:44 4,0 C 3,9 C 2,2 C 84 % 1009,2 hPa 0,0 l/m 0 min 0 min 65 W/m 35,4 km/h (5 Bft) 100,00 %
03.12.2021 12:46 4,0 C 3,9 C 2,2 C 84 % 1009,1 hPa 0,0 l/m 0 min 0 min 71 W/m 35,4 km/h (5 Bft) 100,00 %
03.12.2021 12:48 4,0 C 3,9 C 2,2 C 83 % 1009,1 hPa 0,0 l/m 0 min 0 min 69 W/m 45,1 km/h (6 Bft) 100,00 %
03.12.2021 12:50 4,1 C 3,9 C 2,2 C 83 % 1009,1 hPa 0,0 l/m 0 min 0 min 66 W/m 25,7 km/h (4 Bft) 100,00 %
03.12.2021 12:52 4,1 C 3,9 C 2,2 C 83 % 1009,2 hPa 0,0 l/m 0 min 0 min 63 W/m 29,0 km/h (5 Bft) 97,87 %
03.12.2021 12:54 4,1 C 3,9 C 2,2 C 83 % 1009,1 hPa 0,0 l/m 0 min 0 min 63 W/m 35,4 km/h (5 Bft) 97,87 %
03.12.2021 12:56 4,1 C 3,9 C 2,2 C 83 % 1009,0 hPa 0,0 l/m 0 min 0 min 66 W/m 29,0 km/h (5 Bft) 100,00 %
03.12.2021 12:58 4,1 C 3,9 C 2,2 C 83 % 1009,0 hPa 0,0 l/m 0 min 0 min 70 W/m 38,6 km/h (5 Bft) 95,74 %
03.12.2021 13:00 4,1 C 3,9 C 2,2 C 83 % 1009,0 hPa 0,0 l/m 0 min 0 min 71 W/m 32,2 km/h (5 Bft) 100,00 %
03.12.2021 13:02 4,2 C 3,9 C 2,2 C 83 % 1008,9 hPa 0,0 l/m 0 min 0 min 73 W/m 25,7 km/h (4 Bft) 97,87 %
03.12.2021 13:04 4,2 C 3,9 C 2,2 C 83 % 1008,9 hPa 0,0 l/m 0 min 0 min 77 W/m 25,7 km/h (4 Bft) 100,00 %
03.12.2021 13:06 4,3 C 3,9 C 2,2 C 83 % 1008,9 hPa 0,0 l/m 0 min 0 min 79 W/m 25,7 km/h (4 Bft) 100,00 %
03.12.2021 13:08 4,3 C 3,9 C 2,2 C 83 % 1008,9 hPa 0,0 l/m 0 min 0 min 78 W/m 25,7 km/h (4 Bft) 100,00 %
03.12.2021 13:10 4,3 C 3,9 C 2,2 C 83 % 1008,9 hPa 0,0 l/m 0 min 0 min 81 W/m 45,1 km/h (6 Bft) 100,00 %
03.12.2021 13:12 4,3 C 3,9 C 2,2 C 83 % 1008,9 hPa 0,0 l/m 0 min 0 min 81 W/m 29,0 km/h (5 Bft) 100,00 %
03.12.2021 13:14 4,3 C 3,9 C 2,2 C 83 % 1008,9 hPa 0,0 l/m 0 min 0 min 80 W/m 32,2 km/h (5 Bft) 97,87 %
03.12.2021 13:16 4,3 C 3,9 C 2,2 C 83 % 1008,8 hPa 0,0 l/m 0 min 0 min 78 W/m 29,0 km/h (5 Bft) 97,87 %
03.12.2021 13:18 4,4 C 3,9 C 2,2 C 83 % 1008,8 hPa 0,0 l/m 0 min 0 min 77 W/m 25,7 km/h (4 Bft) 100,00 %
03.12.2021 13:20 4,4 C 3,9 C 2,2 C 83 % 1008,8 hPa 0,0 l/m 0 min 0 min 77 W/m 45,1 km/h (6 Bft) 100,00 %
03.12.2021 13:22 4,4 C 3,9 C 2,2 C 83 % 1008,7 hPa 0,0 l/m 0 min 0 min 83 W/m 41,8 km/h (6 Bft) 100,00 %
03.12.2021 13:24 4,4 C 4,4 C 2,2 C 83 % 1008,6 hPa 0,0 l/m 0 min 0 min 86 W/m 35,4 km/h (5 Bft) 100,00 %
03.12.2021 13:26 4,4 C 4,4 C 2,2 C 83 % 1008,7 hPa 0,0 l/m 0 min 0 min 93 W/m 25,7 km/h (4 Bft) 97,87 %
03.12.2021 13:28 4,5 C 4,4 C 2,2 C 83 % 1008,5 hPa 0,0 l/m 0 min 0 min 96 W/m 25,7 km/h (4 Bft) 100,00 %
03.12.2021 13:30 4,5 C 4,4 C 2,2 C 83 % 1008,6 hPa 0,0 l/m 0 min 0 min 97 W/m 29,0 km/h (5 Bft) 100,00 %
03.12.2021 13:32 4,5 C 4,4 C 2,2 C 83 % 1008,5 hPa 0,0 l/m 0 min 0 min 99 W/m 48,3 km/h (6 Bft) 100,00 %
03.12.2021 13:34 4,5 C 4,4 C 2,2 C 83 % 1008,5 hPa 0,0 l/m 0 min 0 min 102 W/m 22,5 km/h (4 Bft) 100,00 %
03.12.2021 13:36 4,5 C 4,4 C 2,2 C 83 % 1008,4 hPa 0,0 l/m 0 min 0 min 106 W/m 29,0 km/h (5 Bft) 97,87 %
03.12.2021 13:38 4,5 C 4,4 C 2,2 C 83 % 1008,3 hPa 0,0 l/m 0 min 0 min 107 W/m 22,5 km/h (4 Bft) 100,00 %
03.12.2021 13:40 4,5 C 4,4 C 2,2 C 83 % 1008,2 hPa 0,0 l/m 0 min 0 min 107 W/m 32,2 km/h (5 Bft) 97,87 %
03.12.2021 13:42 4,6 C 4,4 C 2,2 C 82 % 1008,1 hPa 0,0 l/m 0 min 0 min 109 W/m 35,4 km/h (5 Bft) 100,00 %
03.12.2021 13:44 4,6 C 4,4 C 2,2 C 82 % 1008,1 hPa 0,0 l/m 0 min 0 min 110 W/m 29,0 km/h (5 Bft) 100,00 %
03.12.2021 13:46 4,6 C 4,4 C 2,2 C 82 % 1008,1 hPa 0,0 l/m 0 min 0 min 113 W/m 25,7 km/h (4 Bft) 97,87 %
03.12.2021 13:48 4,6 C 4,4 C 2,2 C 82 % 1008,1 hPa 0,0 l/m 0 min 0 min 113 W/m 19,3 km/h (3 Bft) 100,00 %
03.12.2021 13:50 4,6 C 4,4 C 2,2 C 82 % 1008,0 hPa 0,0 l/m 0 min 0 min 112 W/m 22,5 km/h (4 Bft) 100,00 %
03.12.2021 13:52 4,7 C 4,4 C 2,2 C 82 % 1008,0 hPa 0,0 l/m 0 min 0 min 110 W/m 22,5 km/h (4 Bft) 100,00 %
03.12.2021 13:54 4,7 C 4,4 C 2,2 C 82 % 1008,1 hPa 0,0 l/m 0 min 0 min 106 W/m 32,2 km/h (5 Bft) 100,00 %
03.12.2021 13:56 4,7 C 4,4 C 2,2 C 82 % 1008,0 hPa 0,0 l/m 0 min 0 min 104 W/m 32,2 km/h (5 Bft) 97,83 %
03.12.2021 13:58 4,7 C 4,4 C 2,2 C 82 % 1008,0 hPa 0,0 l/m 0 min 0 min 100 W/m 38,6 km/h (5 Bft) 97,87 %
03.12.2021 14:00 4,7 C 4,4 C 2,2 C 82 % 1008,0 hPa 0,0 l/m 0 min 0 min 96 W/m 29,0 km/h (5 Bft) 100,00 %
03.12.2021 14:02 4,8 C 4,4 C 2,2 C 82 % 1007,9 hPa 0,0 l/m 0 min 0 min 91 W/m 32,2 km/h (5 Bft) 100,00 %
03.12.2021 14:04 4,8 C 4,4 C 2,2 C 82 % 1008,0 hPa 0,0 l/m 0 min 0 min 88 W/m 41,8 km/h (6 Bft) 100,00 %
03.12.2021 14:06 4,8 C 4,4 C 2,2 C 82 % 1007,9 hPa 0,0 l/m 0 min 0 min 88 W/m 45,1 km/h (6 Bft) 97,83 %
03.12.2021 14:08 4,8 C 4,4 C 2,2 C 82 % 1007,8 hPa 0,0 l/m 0 min 0 min 90 W/m 35,4 km/h (5 Bft) 100,00 %
03.12.2021 14:10 4,8 C 4,4 C 2,2 C 82 % 1007,9 hPa 0,0 l/m 0 min 0 min 85 W/m 38,6 km/h (5 Bft) 97,87 %
03.12.2021 14:12 4,8 C 4,4 C 2,2 C 82 % 1007,8 hPa 0,0 l/m 0 min 0 min 82 W/m 35,4 km/h (5 Bft) 93,62 %
03.12.2021 14:14 4,8 C 4,4 C 2,2 C 82 % 1007,7 hPa 0,0 l/m 0 min 0 min 81 W/m 29,0 km/h (5 Bft) 97,87 %
03.12.2021 14:16 4,8 C 4,4 C 2,2 C 82 % 1007,7 hPa 0,0 l/m 0 min 0 min 83 W/m 38,6 km/h (5 Bft) 97,87 %
03.12.2021 14:18 4,8 C 4,4 C 2,2 C 82 % 1007,7 hPa 0,0 l/m 0 min 0 min 84 W/m 29,0 km/h (5 Bft) 97,83 %
03.12.2021 14:20 4,8 C 4,4 C 2,2 C 81 % 1007,7 hPa 0,0 l/m 0 min 0 min 84 W/m 29,0 km/h (5 Bft) 97,87 %
03.12.2021 14:22 4,8 C 4,4 C 2,2 C 81 % 1007,7 hPa 0,0 l/m 0 min 0 min 85 W/m 41,8 km/h (6 Bft) 97,87 %
03.12.2021 14:24 4,8 C 4,4 C 2,2 C 81 % 1007,7 hPa 0,0 l/m 0 min 0 min 84 W/m 41,8 km/h (6 Bft) 97,87 %
03.12.2021 14:26 4,8 C 4,4 C 2,2 C 81 % 1007,7 hPa 0,0 l/m 0 min 0 min 82 W/m 32,2 km/h (5 Bft) 45,00 %
03.12.2021 14:28 4,8 C 4,4 C 2,2 C 81 % 1007,7 hPa 0,0 l/m 0 min 0 min 77 W/m 35,4 km/h (5 Bft) 94,00 %
03.12.2021 14:30 4,8 C 4,4 C 2,2 C 81 % 1007,7 hPa 0,0 l/m 0 min 0 min 77 W/m 35,4 km/h (5 Bft) 97,83 %
03.12.2021 14:32 4,8 C 4,4 C 2,2 C 81 % 1007,6 hPa 0,0 l/m 0 min 0 min 79 W/m 29,0 km/h (5 Bft) 97,87 %
03.12.2021 14:34 4,8 C 4,4 C 2,2 C 81 % 1007,6 hPa 0,0 l/m 0 min 0 min 74 W/m 35,4 km/h (5 Bft) 95,74 %
03.12.2021 14:36 4,9 C 4,4 C 2,2 C 81 % 1007,5 hPa 0,0 l/m 0 min 0 min 70 W/m 19,3 km/h (3 Bft) 93,62 %
03.12.2021 14:38 4,9 C 4,4 C 2,2 C 81 % 1007,5 hPa 0,0 l/m 0 min 0 min 67 W/m 48,3 km/h (6 Bft) 93,62 %
03.12.2021 14:40 4,9 C 4,4 C 2,2 C 80 % 1007,5 hPa 0,0 l/m 0 min 0 min 58 W/m 29,0 km/h (5 Bft) 97,87 %
03.12.2021 14:42 4,9 C 4,4 C 2,2 C 80 % 1007,6 hPa 0,0 l/m 0 min 0 min 55 W/m 22,5 km/h (4 Bft) 95,65 %
03.12.2021 14:44 4,9 C 4,4 C 2,2 C 80 % 1007,4 hPa 0,0 l/m 0 min 0 min 56 W/m 35,4 km/h (5 Bft) 95,74 %
03.12.2021 14:46 4,9 C 4,4 C 2,2 C 80 % 1007,5 hPa 0,0 l/m 0 min 0 min 52 W/m 29,0 km/h (5 Bft) 95,74 %
03.12.2021 14:48 4,9 C 4,4 C 2,2 C 80 % 1007,4 hPa 0,0 l/m 0 min 0 min 48 W/m 22,5 km/h (4 Bft) 93,62 %
03.12.2021 14:50 4,8 C 4,4 C 2,2 C 80 % 1007,4 hPa 0,0 l/m 0 min 0 min 40 W/m 38,6 km/h (5 Bft) 95,74 %
03.12.2021 14:52 4,8 C 4,4 C 2,2 C 80 % 1007,3 hPa 0,0 l/m 0 min 0 min 36 W/m 29,0 km/h (5 Bft) 93,62 %
03.12.2021 14:54 4,8 C 4,4 C 2,2 C 80 % 1007,3 hPa 0,0 l/m 0 min 0 min 32 W/m 25,7 km/h (4 Bft) 95,65 %
03.12.2021 14:56 4,8 C 4,4 C 2,2 C 80 % 1007,3 hPa 0,0 l/m 0 min 0 min 30 W/m 19,3 km/h (3 Bft) 93,62 %
03.12.2021 14:58 4,8 C 4,4 C 2,2 C 80 % 1007,3 hPa 0,0 l/m 0 min 0 min 28 W/m 41,8 km/h (6 Bft) 95,74 %
03.12.2021 15:00 4,8 C 4,4 C 1,7 C 80 % 1007,3 hPa 0,0 l/m 0 min 0 min 25 W/m 29,0 km/h (5 Bft) 95,74 %
03.12.2021 15:02 4,8 C 4,4 C 1,7 C 80 % 1007,3 hPa 0,0 l/m 0 min 0 min 25 W/m 32,2 km/h (5 Bft) 95,74 %
03.12.2021 15:04 4,8 C 4,4 C 1,7 C 80 % 1007,1 hPa 0,0 l/m 0 min 0 min 25 W/m 38,6 km/h (5 Bft) 95,74 %
03.12.2021 15:06 4,8 C 4,4 C 1,7 C 80 % 1007,2 hPa 0,0 l/m 0 min 0 min 26 W/m 48,3 km/h (6 Bft) 95,65 %
03.12.2021 15:08 4,7 C 4,4 C 1,7 C 80 % 1007,2 hPa 0,0 l/m 0 min 0 min 28 W/m 25,7 km/h (4 Bft) 95,74 %
03.12.2021 15:10 4,8 C 4,4 C 1,7 C 80 % 1007,2 hPa 0,0 l/m 0 min 0 min 29 W/m 25,7 km/h (4 Bft) 93,62 %
03.12.2021 15:12 4,7 C 4,4 C 1,7 C 80 % 1007,1 hPa 0,0 l/m 0 min 0 min 32 W/m 22,5 km/h (4 Bft) 95,74 %
03.12.2021 15:14 4,7 C 4,4 C 1,7 C 80 % 1007,1 hPa 0,0 l/m 0 min 0 min 33 W/m 32,2 km/h (5 Bft) 95,74 %
03.12.2021 15:16 4,7 C 4,4 C 1,7 C 80 % 1007,0 hPa 0,0 l/m 0 min 0 min 33 W/m 32,2 km/h (5 Bft) 95,74 %
03.12.2021 15:18 4,7 C 4,4 C 1,7 C 80 % 1007,0 hPa 0,0 l/m 0 min 0 min 29 W/m 19,3 km/h (3 Bft) 95,65 %
03.12.2021 15:20 4,7 C 4,4 C 1,7 C 80 % 1007,0 hPa 0,0 l/m 0 min 0 min 28 W/m 35,4 km/h (5 Bft) 95,74 %
03.12.2021 15:22 4,7 C 4,4 C 1,7 C 80 % 1007,1 hPa 0,0 l/m 0 min 0 min 25 W/m 45,1 km/h (6 Bft) 95,74 %
03.12.2021 15:24 4,7 C 4,4 C 1,7 C 80 % 1007,0 hPa 0,0 l/m 0 min 0 min 21 W/m 25,7 km/h (4 Bft) 95,74 %
03.12.2021 15:26 4,7 C 4,4 C 1,7 C 80 % 1007,0 hPa 0,0 l/m 0 min 0 min 19 W/m 32,2 km/h (5 Bft) 95,74 %
03.12.2021 15:28 4,7 C 4,4 C 1,7 C 80 % 1007,1 hPa 0,0 l/m 0 min 0 min 18 W/m 19,3 km/h (3 Bft) 97,83 %
03.12.2021 15:30 4,6 C 3,9 C 1,7 C 80 % 1007,1 hPa 0,0 l/m 0 min 0 min 15 W/m 35,4 km/h (5 Bft) 97,87 %
03.12.2021 15:32 4,6 C 3,9 C 1,7 C 81 % 1007,0 hPa 0,0 l/m 0 min 0 min 14 W/m 29,0 km/h (5 Bft) 95,74 %
03.12.2021 15:34 4,6 C 3,9 C 1,7 C 80 % 1007,1 hPa 0,0 l/m 0 min 0 min 13 W/m 38,6 km/h (5 Bft) 100,00 %
03.12.2021 15:36 4,6 C 3,9 C 1,7 C 81 % 1007,1 hPa 0,0 l/m 0 min 0 min 12 W/m 25,7 km/h (4 Bft) 100,00 %
03.12.2021 15:38 4,6 C 3,9 C 1,7 C 81 % 1007,1 hPa 0,0 l/m 0 min 0 min 12 W/m 19,3 km/h (3 Bft) 100,00 %
03.12.2021 15:40 4,6 C 3,9 C 1,7 C 81 % 1007,0 hPa 0,0 l/m 0 min 0 min 11 W/m 29,0 km/h (5 Bft) 100,00 %
03.12.2021 15:42 4,5 C 3,9 C 1,1 C 81 % 1007,0 hPa 0,0 l/m 0 min 0 min 11 W/m 29,0 km/h (5 Bft) 97,87 %
03.12.2021 15:44 4,5 C 3,9 C 1,1 C 82 % 1007,0 hPa 0,0 l/m 0 min 0 min 10 W/m 38,6 km/h (5 Bft) 100,00 %
03.12.2021 15:46 4,5 C 3,9 C 1,1 C 82 % 1006,9 hPa 0,0 l/m 0 min 0 min 9 W/m 48,3 km/h (6 Bft) 97,87 %
03.12.2021 15:48 4,5 C 3,9 C 1,1 C 82 % 1006,9 hPa 0,0 l/m 0 min 0 min 9 W/m 32,2 km/h (5 Bft) 97,87 %
03.12.2021 15:50 4,5 C 3,9 C 1,1 C 82 % 1006,9 hPa 0,0 l/m 0 min 0 min 9 W/m 38,6 km/h (5 Bft) 97,87 %
03.12.2021 15:52 4,4 C 3,9 C 1,1 C 82 % 1006,8 hPa 0,0 l/m 0 min 0 min 7 W/m 35,4 km/h (5 Bft) 100,00 %
03.12.2021 15:54 4,4 C 3,9 C 1,1 C 82 % 1006,9 hPa 0,0 l/m 0 min 0 min 7 W/m 25,7 km/h (4 Bft) 100,00 %
03.12.2021 15:56 4,4 C 3,9 C 1,1 C 82 % 1006,9 hPa 0,0 l/m 0 min 0 min 7 W/m 22,5 km/h (4 Bft) 100,00 %
03.12.2021 15:58 4,4 C 3,9 C 1,1 C 83 % 1006,9 hPa 0,0 l/m 0 min 0 min 6 W/m 22,5 km/h (4 Bft) 95,74 %
03.12.2021 16:00 4,4 C 3,9 C 1,1 C 83 % 1006,9 hPa 0,0 l/m 0 min 0 min 6 W/m 35,4 km/h (5 Bft) 100,00 %
03.12.2021 16:02 4,4 C 3,9 C 1,1 C 83 % 1006,8 hPa 0,0 l/m 0 min 0 min 5 W/m 22,5 km/h (4 Bft) 95,74 %
03.12.2021 16:04 4,4 C 3,9 C 1,1 C 83 % 1006,7 hPa 0,0 l/m 0 min 0 min 5 W/m 22,5 km/h (4 Bft) 100,00 %
03.12.2021 16:06 4,4 C 3,9 C 1,1 C 83 % 1006,7 hPa 0,0 l/m 0 min 0 min 5 W/m 35,4 km/h (5 Bft) 97,87 %
03.12.2021 16:08 4,4 C 3,9 C 1,1 C 83 % 1006,7 hPa 0,0 l/m 0 min 0 min 2 W/m 19,3 km/h (3 Bft) 97,87 %
03.12.2021 16:10 4,4 C 3,9 C 1,1 C 83 % 1006,7 hPa 0,0 l/m 0 min 0 min 0 W/m 19,3 km/h (3 Bft) 97,87 %
03.12.2021 16:12 4,4 C 3,9 C 1,1 C 83 % 1006,7 hPa 0,0 l/m 0 min 0 min 0 W/m 25,7 km/h (4 Bft) 97,87 %
03.12.2021 16:14 4,4 C 3,9 C 1,1 C 83 % 1006,6 hPa 0,0 l/m 0 min 0 min 0 W/m 32,2 km/h (5 Bft) 97,87 %
03.12.2021 16:16 4,4 C 3,9 C 1,1 C 83 % 1006,6 hPa 0,0 l/m 0 min 0 min 0 W/m 19,3 km/h (3 Bft) 97,83 %
03.12.2021 16:18 4,4 C 3,9 C 1,1 C 82 % 1006,6 hPa 0,0 l/m 0 min 0 min 0 W/m 25,7 km/h (4 Bft) 97,87 %
03.12.2021 16:20 4,4 C 3,9 C 1,1 C 82 % 1006,6 hPa 0,0 l/m 0 min 0 min 0 W/m 29,0 km/h (5 Bft) 97,87 %
03.12.2021 16:22 4,4 C 3,9 C 1,7 C 82 % 1006,7 hPa 0,0 l/m 0 min 0 min 0 W/m 25,7 km/h (4 Bft) 95,74 %
03.12.2021 16:24 4,4 C 3,9 C 1,7 C 82 % 1006,7 hPa 0,0 l/m 0 min 0 min 0 W/m 19,3 km/h (3 Bft) 97,87 %
03.12.2021 16:26 4,4 C 3,9 C 1,7 C 82 % 1006,7 hPa 0,0 l/m 0 min 0 min 0 W/m 29,0 km/h (5 Bft) 97,87 %
03.12.2021 16:28 4,4 C 3,9 C 1,7 C 82 % 1006,7 hPa 0,0 l/m 0 min 0 min 0 W/m 25,7 km/h (4 Bft) 97,83 %
03.12.2021 16:30 4,5 C 3,9 C 1,7 C 82 % 1006,7 hPa 0,0 l/m 0 min 0 min 0 W/m 29,0 km/h (5 Bft) 97,87 %
03.12.2021 16:32 4,5 C 3,9 C 1,7 C 82 % 1006,8 hPa 0,0 l/m 0 min 0 min 0 W/m 32,2 km/h (5 Bft) 97,87 %
03.12.2021 16:34 4,5 C 3,9 C 1,7 C 82 % 1006,7 hPa 0,0 l/m 0 min 0 min 0 W/m 22,5 km/h (4 Bft) 97,87 %
03.12.2021 16:36 4,5 C 3,9 C 1,7 C 82 % 1006,7 hPa 0,0 l/m 0 min 0 min 0 W/m 35,4 km/h (5 Bft) 97,87 %
03.12.2021 16:38 4,5 C 3,9 C 1,7 C 82 % 1006,6 hPa 0,0 l/m 0 min 0 min 0 W/m 35,4 km/h (5 Bft) 95,74 %
03.12.2021 16:40 4,5 C 3,9 C 1,7 C 83 % 1006,6 hPa 0,0 l/m 0 min 0 min 0 W/m 25,7 km/h (4 Bft) 100,00 %
03.12.2021 16:42 4,5 C 3,9 C 1,1 C 83 % 1006,5 hPa 0,0 l/m 0 min 0 min 0 W/m 48,3 km/h (6 Bft) 100,00 %
03.12.2021 16:44 4,5 C 3,9 C 1,1 C 83 % 1006,6 hPa 0,0 l/m 0 min 0 min 0 W/m 25,7 km/h (4 Bft) 100,00 %
03.12.2021 16:46 4,5 C 3,9 C 1,1 C 83 % 1006,5 hPa 0,0 l/m 0 min 0 min 0 W/m 38,6 km/h (5 Bft) 100,00 %
03.12.2021 16:48 4,4 C 3,9 C 1,1 C 83 % 1006,5 hPa 0,0 l/m 0 min 0 min 0 W/m 32,2 km/h (5 Bft) 100,00 %
03.12.2021 16:50 4,4 C 3,9 C 1,1 C 83 % 1006,5 hPa 0,0 l/m 0 min 0 min 0 W/m 19,3 km/h (3 Bft) 100,00 %
03.12.2021 16:52 4,4 C 3,9 C 1,1 C 83 % 1006,5 hPa 0,0 l/m 0 min 0 min 0 W/m 25,7 km/h (4 Bft) 100,00 %
03.12.2021 16:54 4,4 C 3,9 C 1,1 C 83 % 1006,5 hPa 0,0 l/m 0 min 0 min 0 W/m 29,0 km/h (5 Bft) 100,00 %
03.12.2021 16:56 4,4 C 3,9 C 1,1 C 83 % 1006,5 hPa 0,0 l/m 0 min 0 min 0 W/m 29,0 km/h (5 Bft) 100,00 %
03.12.2021 16:58 4,4 C 3,9 C 1,1 C 84 % 1006,4 hPa 0,0 l/m 0 min 0 min 0 W/m 35,4 km/h (5 Bft) 100,00 %
03.12.2021 17:00 4,4 C 3,9 C 1,1 C 84 % 1006,4 hPa 0,0 l/m 0 min 0 min 0 W/m 35,4 km/h (5 Bft) 100,00 %
03.12.2021 17:02 4,4 C 3,9 C 1,1 C 84 % 1006,2 hPa 0,0 l/m 0 min 0 min 0 W/m 35,4 km/h (5 Bft) 100,00 %
03.12.2021 17:04 4,4 C 3,9 C 1,1 C 84 % 1006,2 hPa 0,0 l/m 0 min 0 min 0 W/m 16,1 km/h (3 Bft) 100,00 %
03.12.2021 17:06 4,4 C 3,9 C 1,1 C 84 % 1006,2 hPa 0,0 l/m 0 min 0 min 0 W/m 22,5 km/h (4 Bft) 100,00 %
03.12.2021 17:08 4,4 C 3,9 C 1,1 C 84 % 1006,3 hPa 0,0 l/m 0 min 0 min 0 W/m 25,7 km/h (4 Bft) 100,00 %
03.12.2021 17:10 4,3 C 3,9 C 1,1 C 84 % 1006,3 hPa 0,0 l/m 0 min 0 min 0 W/m 22,5 km/h (4 Bft) 100,00 %
03.12.2021 17:12 4,3 C 3,9 C 1,1 C 84 % 1006,4 hPa 0,0 l/m 0 min 0 min 0 W/m 25,7 km/h (4 Bft) 95,74 %
03.12.2021 17:14 4,3 C 3,9 C 1,1 C 85 % 1006,3 hPa 0,0 l/m 0 min 0 min 0 W/m 29,0 km/h (5 Bft) 100,00 %
03.12.2021 17:16 4,3 C 3,9 C 1,1 C 85 % 1006,4 hPa 0,0 l/m 0 min 0 min 0 W/m 32,2 km/h (5 Bft) 100,00 %
03.12.2021 17:18 4,3 C 3,9 C 1,1 C 85 % 1006,3 hPa 0,0 l/m 0 min 0 min 0 W/m 32,2 km/h (5 Bft) 100,00 %
03.12.2021 17:20 4,3 C 3,9 C 1,1 C 85 % 1006,2 hPa 0,0 l/m 0 min 0 min 0 W/m 16,1 km/h (3 Bft) 100,00 %
03.12.2021 17:22 4,3 C 3,9 C 1,1 C 85 % 1006,2 hPa 0,0 l/m 0 min 0 min 0 W/m 38,6 km/h (5 Bft) 97,87 %
03.12.2021 17:24 4,3 C 3,9 C 1,1 C 85 % 1006,2 hPa 0,0 l/m 0 min 0 min 0 W/m 16,1 km/h (3 Bft) 97,87 %
03.12.2021 17:26 4,3 C 3,9 C 1,1 C 85 % 1006,2 hPa 0,0 l/m 0 min 0 min 0 W/m 32,2 km/h (5 Bft) 100,00 %
03.12.2021 17:28 4,3 C 3,9 C 1,1 C 85 % 1006,2 hPa 0,0 l/m 0 min 0 min 0 W/m 19,3 km/h (3 Bft) 95,74 %
03.12.2021 17:30 4,3 C 3,9 C 1,1 C 85 % 1006,1 hPa 0,0 l/m 0 min 0 min 0 W/m 25,7 km/h (4 Bft) 95,74 %
03.12.2021 17:32 4,3 C 3,9 C 1,1 C 85 % 1006,1 hPa 0,0 l/m 0 min 0 min 0 W/m 29,0 km/h (5 Bft) 95,74 %
03.12.2021 17:34 4,3 C 3,9 C 1,1 C 85 % 1006,1 hPa 0,0 l/m 0 min 0 min 0 W/m 16,1 km/h (3 Bft) 95,74 %
03.12.2021 17:36 4,3 C 3,9 C 1,1 C 85 % 1006,1 hPa 0,0 l/m 0 min 0 min 0 W/m 25,7 km/h (4 Bft) 95,74 %
03.12.2021 17:38 4,3 C 3,9 C 1,1 C 85 % 1006,1 hPa 0,0 l/m 0 min 0 min 0 W/m 35,4 km/h (5 Bft) 95,65 %
03.12.2021 17:40 4,4 C 3,9 C 1,1 C 85 % 1006,0 hPa 0,0 l/m 0 min 0 min 0 W/m 25,7 km/h (4 Bft) 93,62 %
03.12.2021 17:42 4,4 C 3,9 C 1,1 C 85 % 1006,1 hPa 0,0 l/m 0 min 0 min 0 W/m 25,7 km/h (4 Bft) 95,74 %
03.12.2021 17:44 4,4 C 3,9 C 1,1 C 85 % 1006,1 hPa 0,0 l/m 0 min 0 min 0 W/m 29,0 km/h (5 Bft) 93,62 %
03.12.2021 17:46 4,4 C 3,9 C 1,1 C 85 % 1006,1 hPa 0,0 l/m 0 min 0 min 0 W/m 29,0 km/h (5 Bft) 95,74 %
03.12.2021 17:48 4,4 C 3,9 C 1,1 C 85 % 1006,0 hPa 0,0 l/m 0 min 0 min 0 W/m 25,7 km/h (4 Bft) 95,74 %
03.12.2021 17:50 4,4 C 3,9 C 1,1 C 85 % 1006,0 hPa 0,0 l/m 0 min 0 min 0 W/m 25,7 km/h (4 Bft) 93,48 %
03.12.2021 17:52 4,4 C 3,9 C 1,1 C 85 % 1005,9 hPa 0,0 l/m 0 min 0 min 0 W/m 29,0 km/h (5 Bft) 93,62 %
03.12.2021 17:54 4,4 C 3,9 C 1,1 C 85 % 1005,9 hPa 0,0 l/m 0 min 0 min 0 W/m 19,3 km/h (3 Bft) 95,74 %
03.12.2021 17:56 4,4 C 3,9 C 1,1 C 85 % 1005,8 hPa 0,0 l/m 0 min 0 min 0 W/m 19,3 km/h (3 Bft) 95,74 %
03.12.2021 17:58 4,4 C 3,9 C 1,1 C 85 % 1005,8 hPa 0,0 l/m 0 min 0 min 0 W/m 29,0 km/h (5 Bft) 95,74 %
03.12.2021 18:00 4,4 C 3,9 C 1,1 C 85 % 1005,8 hPa 0,0 l/m 0 min 0 min 0 W/m 22,5 km/h (4 Bft) 95,74 %
03.12.2021 18:02 4,4 C 3,9 C 1,1 C 85 % 1005,8 hPa 0,0 l/m 0 min 0 min 0 W/m 32,2 km/h (5 Bft) 93,48 %
03.12.2021 18:04 4,4 C 3,9 C 1,1 C 85 % 1005,8 hPa 0,0 l/m 0 min 0 min 0 W/m 29,0 km/h (5 Bft) 93,75 %
03.12.2021 18:08 4,4 C 3,9 C 1,1 C 85 % 1005,8 hPa 0,0 l/m 0 min 0 min 0 W/m 22,5 km/h (4 Bft) 93,62 %
03.12.2021 18:10 4,4 C 3,9 C 1,1 C 85 % 1005,8 hPa 0,0 l/m 0 min 0 min 0 W/m 32,2 km/h (5 Bft) 93,62 %
03.12.2021 18:12 4,4 C 3,9 C 1,1 C 86 % 1005,8 hPa 0,0 l/m 0 min 0 min 0 W/m 29,0 km/h (5 Bft) 95,74 %
03.12.2021 18:14 4,4 C 3,9 C 1,1 C 86 % 1005,8 hPa 0,0 l/m 0 min 0 min 0 W/m 19,3 km/h (3 Bft) 95,65 %
03.12.2021 18:16 4,4 C 3,9 C 1,1 C 86 % 1005,8 hPa 0,0 l/m 0 min 0 min 0 W/m 25,7 km/h (4 Bft) 95,74 %
03.12.2021 18:18 4,4 C 3,9 C 1,1 C 86 % 1005,8 hPa 0,0 l/m 0 min 0 min 0 W/m 22,5 km/h (4 Bft) 95,74 %
03.12.2021 18:20 4,4 C 3,9 C 1,1 C 86 % 1005,7 hPa 0,0 l/m 0 min 0 min 0 W/m 25,7 km/h (4 Bft) 97,87 %
03.12.2021 18:22 4,4 C 3,9 C 1,1 C 86 % 1005,8 hPa 0,0 l/m 0 min 0 min 0 W/m 25,7 km/h (4 Bft) 97,87 %
03.12.2021 18:24 4,4 C 3,9 C 1,1 C 86 % 1005,8 hPa 0,0 l/m 0 min 0 min 0 W/m 32,2 km/h (5 Bft) 97,83 %
03.12.2021 18:26 4,4 C 3,9 C 1,1 C 86 % 1005,8 hPa 0,0 l/m 0 min 0 min 0 W/m 38,6 km/h (5 Bft) 97,87 %
03.12.2021 18:28 4,4 C 3,9 C 1,1 C 86 % 1005,8 hPa 0,0 l/m 0 min 0 min 0 W/m 29,0 km/h (5 Bft) 97,87 %
03.12.2021 18:30 4,5 C 3,9 C 1,1 C 86 % 1005,7 hPa 0,0 l/m 0 min 0 min 0 W/m 16,1 km/h (3 Bft) 97,87 %
03.12.2021 18:32 4,5 C 3,9 C 1,1 C 86 % 1005,8 hPa 0,0 l/m 0 min 0 min 0 W/m 29,0 km/h (5 Bft) 95,74 %
03.12.2021 18:34 4,4 C 3,9 C 1,1 C 86 % 1005,8 hPa 0,0 l/m 0 min 0 min 0 W/m 22,5 km/h (4 Bft) 97,87 %
03.12.2021 18:36 4,4 C 3,9 C 1,1 C 86 % 1005,8 hPa 0,0 l/m 0 min 0 min 0 W/m 12,9 km/h (3 Bft) 97,83 %
03.12.2021 18:38 4,4 C 3,9 C 1,1 C 86 % 1005,8 hPa 0,0 l/m 0 min 0 min 0 W/m 22,5 km/h (4 Bft) 100,00 %
03.12.2021 18:40 4,4 C 3,9 C 1,1 C 87 % 1005,9 hPa 0,0 l/m 0 min 0 min 0 W/m 19,3 km/h (3 Bft) 97,87 %
03.12.2021 18:42 4,4 C 3,9 C 1,1 C 87 % 1005,9 hPa 0,0 l/m 0 min 0 min 0 W/m 25,7 km/h (4 Bft) 100,00 %
03.12.2021 18:44 4,4 C 3,9 C 1,1 C 87 % 1005,8 hPa 0,0 l/m 0 min 0 min 0 W/m 12,9 km/h (3 Bft) 100,00 %
03.12.2021 18:46 4,4 C 3,9 C 1,1 C 87 % 1005,8 hPa 0,0 l/m 0 min 0 min 0 W/m 19,3 km/h (3 Bft) 100,00 %
03.12.2021 18:48 4,3 C 3,9 C 1,1 C 88 % 1005,8 hPa 0,0 l/m 0 min 0 min 0 W/m 19,3 km/h (3 Bft) 100,00 %
03.12.2021 18:50 4,3 C 3,9 C 1,1 C 88 % 1005,6 hPa 0,0 l/m 0 min 0 min 0 W/m 22,5 km/h (4 Bft) 100,00 %
03.12.2021 18:52 4,3 C 3,9 C 1,1 C 88 % 1005,6 hPa 0,0 l/m 0 min 0 min 0 W/m 22,5 km/h (4 Bft) 100,00 %
03.12.2021 18:54 4,3 C 3,3 C 1,1 C 88 % 1005,6 hPa 0,0 l/m 0 min 0 min 0 W/m 35,4 km/h (5 Bft) 100,00 %
03.12.2021 18:56 4,3 C 3,3 C 0,6 C 88 % 1005,6 hPa 0,0 l/m 0 min 0 min 0 W/m 22,5 km/h (4 Bft) 100,00 %
03.12.2021 18:58 4,3 C 3,3 C 0,6 C 88 % 1005,5 hPa 0,0 l/m 0 min 0 min 0 W/m 25,7 km/h (4 Bft) 100,00 %
03.12.2021 19:00 4,2 C 3,3 C 0,6 C 89 % 1005,4 hPa 0,0 l/m 0 min 0 min 0 W/m 16,1 km/h (3 Bft) 100,00 %
03.12.2021 19:02 4,2 C 3,3 C 0,6 C 89 % 1005,4 hPa 0,0 l/m 0 min 0 min 0 W/m 16,1 km/h (3 Bft) 100,00 %
03.12.2021 19:04 4,1 C 3,3 C 0,6 C 89 % 1005,4 hPa 0,0 l/m 0 min 0 min 0 W/m 19,3 km/h (3 Bft) 100,00 %
03.12.2021 19:06 4,1 C 3,3 C 0,6 C 89 % 1005,4 hPa 0,0 l/m 0 min 0 min 0 W/m 29,0 km/h (5 Bft) 97,87 %
03.12.2021 19:08 4,1 C 3,3 C 0,6 C 89 % 1005,3 hPa 0,0 l/m 0 min 0 min 0 W/m 19,3 km/h (3 Bft) 100,00 %
03.12.2021 19:10 4,1 C 3,3 C 0,6 C 90 % 1005,2 hPa 0,0 l/m 0 min 0 min 0 W/m 19,3 km/h (3 Bft) 100,00 %
03.12.2021 19:12 4,1 C 3,3 C 0,6 C 90 % 1005,1 hPa 0,0 l/m 0 min 0 min 0 W/m 22,5 km/h (4 Bft) 100,00 %
03.12.2021 19:14 4,1 C 3,3 C 0,6 C 90 % 1005,1 hPa 0,0 l/m 0 min 0 min 0 W/m 22,5 km/h (4 Bft) 100,00 %
03.12.2021 19:16 4,0 C 3,3 C 0,6 C 90 % 1005,0 hPa 0,0 l/m 0 min 0 min 0 W/m 22,5 km/h (4 Bft) 100,00 %
03.12.2021 19:18 4,0 C 3,3 C 0,6 C 90 % 1004,9 hPa 0,0 l/m 0 min 0 min 0 W/m 25,7 km/h (4 Bft) 100,00 %
03.12.2021 19:20 4,0 C 3,3 C 1,1 C 90 % 1004,9 hPa 0,0 l/m 0 min 0 min 0 W/m 35,4 km/h (5 Bft) 100,00 %
03.12.2021 19:22 4,0 C 3,3 C 1,1 C 90 % 1004,9 hPa 0,0 l/m 0 min 0 min 0 W/m 29,0 km/h (5 Bft) 100,00 %
03.12.2021 19:24 4,0 C 3,3 C 1,1 C 90 % 1004,9 hPa 0,0 l/m 0 min 0 min 0 W/m 22,5 km/h (4 Bft) 100,00 %
03.12.2021 19:26 4,0 C 3,3 C 1,1 C 90 % 1004,9 hPa 0,0 l/m 0 min 0 min 0 W/m 22,5 km/h (4 Bft) 100,00 %
03.12.2021 19:28 4,0 C 3,3 C 1,1 C 90 % 1004,8 hPa 0,0 l/m 0 min 0 min 0 W/m 25,7 km/h (4 Bft) 100,00 %
03.12.2021 19:30 4,0 C 3,3 C 1,1 C 91 % 1004,8 hPa 0,0 l/m 0 min 0 min 0 W/m 19,3 km/h (3 Bft) 100,00 %
03.12.2021 19:32 4,0 C 3,3 C 1,1 C 91 % 1004,8 hPa 0,0 l/m 0 min 0 min 0 W/m 19,3 km/h (3 Bft) 97,87 %
03.12.2021 19:34 4,0 C 3,3 C 1,1 C 91 % 1004,7 hPa 0,0 l/m 0 min 0 min 0 W/m 19,3 km/h (3 Bft) 97,83 %
03.12.2021 19:36 4,0 C 3,3 C 1,1 C 91 % 1004,7 hPa 0,0 l/m 0 min 0 min 0 W/m 22,5 km/h (4 Bft) 100,00 %
03.12.2021 19:38 4,0 C 3,3 C 1,1 C 91 % 1004,7 hPa 0,0 l/m 0 min 0 min 0 W/m 16,1 km/h (3 Bft) 100,00 %
03.12.2021 19:40 4,0 C 3,3 C 1,1 C 91 % 1004,6 hPa 0,0 l/m 0 min 0 min 0 W/m 12,9 km/h (3 Bft) 100,00 %
03.12.2021 19:42 4,0 C 3,3 C 1,1 C 91 % 1004,6 hPa 0,0 l/m 0 min 0 min 0 W/m 12,9 km/h (3 Bft) 95,74 %
03.12.2021 19:44 4,0 C 3,3 C 1,1 C 91 % 1004,6 hPa 0,0 l/m 0 min 0 min 0 W/m 12,9 km/h (3 Bft) 100,00 %
03.12.2021 19:46 4,0 C 3,3 C 1,1 C 91 % 1004,6 hPa 0,0 l/m 0 min 0 min 0 W/m 12,9 km/h (3 Bft) 97,83 %
03.12.2021 19:48 4,0 C 3,3 C 1,1 C 91 % 1004,5 hPa 0,0 l/m 0 min 0 min 0 W/m 12,9 km/h (3 Bft) 100,00 %
03.12.2021 19:50 4,0 C 3,3 C 1,1 C 91 % 1004,4 hPa 0,0 l/m 0 min 0 min 0 W/m 12,9 km/h (3 Bft) 97,87 %
03.12.2021 19:52 4,0 C 3,3 C 1,1 C 91 % 1004,3 hPa 0,0 l/m 0 min 0 min 0 W/m 12,9 km/h (3 Bft) 100,00 %
03.12.2021 19:54 4,0 C 3,3 C 1,1 C 91 % 1004,2 hPa 0,0 l/m 0 min 0 min 0 W/m 12,9 km/h (3 Bft) 97,87 %
03.12.2021 19:56 4,0 C 3,3 C 1,1 C 91 % 1004,2 hPa 0,0 l/m 0 min 0 min 0 W/m 16,1 km/h (3 Bft) 100,00 %
03.12.2021 19:58 4,0 C 3,3 C 1,1 C 91 % 1004,2 hPa 0,0 l/m 0 min 0 min 0 W/m 16,1 km/h (3 Bft) 97,83 %
03.12.2021 20:00 4,0 C 3,3 C 1,1 C 91 % 1004,2 hPa 0,0 l/m 0 min 0 min 0 W/m 12,9 km/h (3 Bft) 95,74 %
03.12.2021 20:02 4,0 C 3,3 C 1,1 C 91 % 1004,2 hPa 0,0 l/m 0 min 0 min 0 W/m 12,9 km/h (3 Bft) 93,62 %
03.12.2021 20:04 4,0 C 3,3 C 1,1 C 91 % 1004,2 hPa 0,0 l/m 0 min 0 min 0 W/m 12,9 km/h (3 Bft) 93,62 %
03.12.2021 20:06 4,0 C 3,3 C 1,1 C 91 % 1004,2 hPa 0,0 l/m 0 min 0 min 0 W/m 9,7 km/h (2 Bft) 95,74 %
03.12.2021 20:08 4,0 C 3,3 C 1,1 C 91 % 1004,2 hPa 0,0 l/m 0 min 0 min 0 W/m 12,9 km/h (3 Bft) 95,74 %
03.12.2021 20:10 4,0 C 3,3 C 1,1 C 91 % 1004,2 hPa 0,0 l/m 0 min 0 min 0 W/m 16,1 km/h (3 Bft) 94,29 %
03.12.2021 20:12 4,0 C 3,3 C 1,1 C 91 % 1004,2 hPa 0,0 l/m 0 min 0 min 0 W/m 12,9 km/h (3 Bft) 96,55 %
03.12.2021 20:14 4,0 C 3,3 C 1,1 C 91 % 1004,1 hPa 0,0 l/m 0 min 0 min 0 W/m 16,1 km/h (3 Bft) 93,62 %
03.12.2021 20:16 4,0 C 3,9 C 1,1 C 91 % 1004,1 hPa 0,0 l/m 0 min 0 min 0 W/m 12,9 km/h (3 Bft) 95,74 %
03.12.2021 20:18 4,0 C 3,9 C 1,1 C 91 % 1004,2 hPa 0,0 l/m 0 min 0 min 0 W/m 12,9 km/h (3 Bft) 93,62 %
03.12.2021 20:20 4,0 C 3,9 C 1,1 C 91 % 1004,1 hPa 0,0 l/m 0 min 0 min 0 W/m 16,1 km/h (3 Bft) 95,74 %
03.12.2021 20:22 4,0 C 3,9 C 1,1 C 91 % 1004,1 hPa 0,0 l/m 0 min 0 min 0 W/m 16,1 km/h (3 Bft) 95,65 %
03.12.2021 20:24 4,0 C 3,9 C 1,1 C 91 % 1004,1 hPa 0,0 l/m 0 min 0 min 0 W/m 16,1 km/h (3 Bft) 93,62 %
03.12.2021 20:26 4,0 C 3,9 C 1,1 C 91 % 1004,2 hPa 0,0 l/m 0 min 0 min 0 W/m 9,7 km/h (2 Bft) 95,74 %
03.12.2021 20:28 4,0 C 3,9 C 1,1 C 91 % 1004,2 hPa 0,0 l/m 0 min 0 min 0 W/m 12,9 km/h (3 Bft) 95,74 %
03.12.2021 20:30 4,0 C 3,9 C 1,1 C 90 % 1004,2 hPa 0,0 l/m 0 min 0 min 0 W/m 16,1 km/h (3 Bft) 97,87 %
03.12.2021 20:32 4,0 C 3,9 C 1,1 C 90 % 1004,1 hPa 0,0 l/m 0 min 0 min 0 W/m 6,4 km/h (2 Bft) 94,29 %
03.12.2021 20:34 4,1 C 3,9 C 1,1 C 90 % 1004,1 hPa 0,0 l/m 0 min 0 min 0 W/m 16,1 km/h (3 Bft) 95,74 %
03.12.2021 20:36 4,1 C 3,9 C 1,1 C 90 % 1004,1 hPa 0,0 l/m 0 min 0 min 0 W/m 12,9 km/h (3 Bft) 97,87 %
03.12.2021 20:38 4,1 C 3,9 C 1,7 C 90 % 1004,1 hPa 0,0 l/m 0 min 0 min 0 W/m 19,3 km/h (3 Bft) 96,15 %
03.12.2021 20:40 4,1 C 3,9 C 1,7 C 90 % 1004,1 hPa 0,0 l/m 0 min 0 min 0 W/m 16,1 km/h (3 Bft) 91,49 %
03.12.2021 20:42 4,1 C 3,9 C 1,7 C 90 % 1004,1 hPa 0,0 l/m 0 min 0 min 0 W/m 6,4 km/h (2 Bft) 95,74 %
03.12.2021 20:44 4,1 C 3,9 C 1,7 C 90 % 1004,1 hPa 0,0 l/m 0 min 0 min 0 W/m 9,7 km/h (2 Bft) 95,74 %
03.12.2021 20:46 4,1 C 3,9 C 1,7 C 90 % 1004,1 hPa 0,0 l/m 0 min 0 min 0 W/m 16,1 km/h (3 Bft) 44,74 %
03.12.2021 20:48 4,2 C 3,9 C 1,7 C 90 % 1004,2 hPa 0,0 l/m 0 min 0 min 0 W/m 12,9 km/h (3 Bft) 98,08 %
03.12.2021 20:50 4,2 C 3,9 C 1,7 C 89 % 1004,1 hPa 0,0 l/m 0 min 0 min 0 W/m 12,9 km/h (3 Bft) 95,74 %
03.12.2021 20:52 4,2 C 3,9 C 1,7 C 89 % 1004,1 hPa 0,0 l/m 0 min 0 min 0 W/m 16,1 km/h (3 Bft) 97,87 %
03.12.2021 20:54 4,3 C 3,9 C 1,7 C 89 % 1004,0 hPa 0,0 l/m 0 min 0 min 0 W/m 12,9 km/h (3 Bft) 97,87 %
03.12.2021 20:56 4,3 C 3,9 C 1,7 C 89 % 1004,0 hPa 0,0 l/m 0 min 0 min 0 W/m 9,7 km/h (2 Bft) 95,74 %
03.12.2021 20:58 4,3 C 3,9 C 1,7 C 89 % 1004,0 hPa 0,0 l/m 0 min 0 min 0 W/m 12,9 km/h (3 Bft) 95,74 %
03.12.2021 21:00 4,3 C 3,9 C 1,7 C 89 % 1003,9 hPa 0,0 l/m 0 min 0 min 0 W/m 12,9 km/h (3 Bft) 97,83 %
03.12.2021 21:02 4,3 C 3,9 C 1,7 C 89 % 1003,9 hPa 0,0 l/m 0 min 0 min 0 W/m 12,9 km/h (3 Bft) 97,92 %
03.12.2021 21:04 4,3 C 3,9 C 1,7 C 88 % 1003,9 hPa 0,0 l/m 0 min 0 min 0 W/m 16,1 km/h (3 Bft) 97,87 %
03.12.2021 21:06 4,3 C 3,9 C 1,7 C 88 % 1003,9 hPa 0,0 l/m 0 min 0 min 0 W/m 16,1 km/h (3 Bft) 98,31 %
03.12.2021 21:08 4,4 C 3,9 C 1,7 C 88 % 1003,8 hPa 0,0 l/m 0 min 0 min 0 W/m 16,1 km/h (3 Bft) 97,14 %
03.12.2021 21:10 4,4 C 3,9 C 1,7 C 88 % 1003,8 hPa 0,0 l/m 0 min 0 min 0 W/m 12,9 km/h (3 Bft) 97,87 %
03.12.2021 21:12 4,4 C 3,9 C 1,7 C 88 % 1003,8 hPa 0,0 l/m 0 min 0 min 0 W/m 12,9 km/h (3 Bft) 97,83 %
03.12.2021 21:14 4,4 C 3,9 C 1,7 C 88 % 1003,9 hPa 0,0 l/m 0 min 0 min 0 W/m 9,7 km/h (2 Bft) 95,74 %
03.12.2021 21:16 4,4 C 3,9 C 1,7 C 88 % 1003,8 hPa 0,0 l/m 0 min 0 min 0 W/m 16,1 km/h (3 Bft) 95,74 %
03.12.2021 21:18 4,4 C 3,9 C 1,7 C 87 % 1003,9 hPa 0,0 l/m 0 min 0 min 0 W/m 12,9 km/h (3 Bft) 97,87 %
03.12.2021 21:20 4,4 C 3,9 C 1,7 C 87 % 1003,9 hPa 0,0 l/m 0 min 0 min 0 W/m 12,9 km/h (3 Bft) 100,00 %
03.12.2021 21:22 4,5 C 3,9 C 1,7 C 87 % 1003,9 hPa 0,0 l/m 0 min 0 min 0 W/m 16,1 km/h (3 Bft) 97,83 %
03.12.2021 21:24 4,5 C 3,9 C 1,7 C 87 % 1003,8 hPa 0,0 l/m 0 min 0 min 0 W/m 19,3 km/h (3 Bft) 100,00 %
03.12.2021 21:26 4,5 C 3,9 C 1,7 C 87 % 1003,8 hPa 0,0 l/m 0 min 0 min 0 W/m 12,9 km/h (3 Bft) 100,00 %
03.12.2021 21:28 4,5 C 3,9 C 1,7 C 87 % 1003,8 hPa 0,0 l/m 0 min 0 min 0 W/m 12,9 km/h (3 Bft) 100,00 %
03.12.2021 21:30 4,5 C 3,9 C 1,7 C 87 % 1003,8 hPa 0,0 l/m 0 min 0 min 0 W/m 16,1 km/h (3 Bft) 97,87 %
03.12.2021 21:32 4,5 C 4,4 C 1,7 C 87 % 1003,7 hPa 0,0 l/m 0 min 0 min 0 W/m 6,4 km/h (2 Bft) 97,92 %
03.12.2021 21:34 4,5 C 4,4 C 1,7 C 87 % 1003,8 hPa 0,0 l/m 0 min 0 min 0 W/m 16,1 km/h (3 Bft) 95,65 %
03.12.2021 21:36 4,6 C 4,4 C 1,7 C 87 % 1003,7 hPa 0,0 l/m 0 min 0 min 0 W/m 19,3 km/h (3 Bft) 100,00 %
03.12.2021 21:38 4,6 C 4,4 C 1,7 C 87 % 1003,7 hPa 0,0 l/m 0 min 0 min 0 W/m 12,9 km/h (3 Bft) 100,00 %
03.12.2021 21:40 4,6 C 4,4 C 1,7 C 87 % 1003,7 hPa 0,0 l/m 0 min 0 min 0 W/m 6,4 km/h (2 Bft) 97,87 %
03.12.2021 21:42 4,6 C 4,4 C 1,7 C 87 % 1003,6 hPa 0,0 l/m 0 min 0 min 0 W/m 9,7 km/h (2 Bft) 97,87 %
03.12.2021 21:44 4,6 C 4,4 C 1,7 C 87 % 1003,6 hPa 0,0 l/m 0 min 0 min 0 W/m 12,9 km/h (3 Bft) 100,00 %
03.12.2021 21:46 4,6 C 4,4 C 1,7 C 87 % 1003,6 hPa 0,0 l/m 0 min 0 min 0 W/m 16,1 km/h (3 Bft) 100,00 %
03.12.2021 21:48 4,6 C 4,4 C 1,7 C 87 % 1003,7 hPa 0,0 l/m 0 min 0 min 0 W/m 16,1 km/h (3 Bft) 97,87 %
03.12.2021 21:50 4,6 C 4,4 C 1,7 C 87 % 1003,6 hPa 0,0 l/m 0 min 0 min 0 W/m 12,9 km/h (3 Bft) 100,00 %
03.12.2021 21:52 4,6 C 4,4 C 1,7 C 87 % 1003,6 hPa 0,0 l/m 0 min 0 min 0 W/m 12,9 km/h (3 Bft) 100,00 %
03.12.2021 21:54 4,7 C 4,4 C 1,7 C 87 % 1003,6 hPa 0,0 l/m 0 min 0 min 0 W/m 16,1 km/h (3 Bft) 97,87 %
03.12.2021 21:56 4,7 C 4,4 C 1,7 C 87 % 1003,6 hPa 0,0 l/m 0 min 0 min 0 W/m 16,1 km/h (3 Bft) 97,87 %
03.12.2021 21:58 4,7 C 3,9 C 1,7 C 87 % 1003,6 hPa 0,0 l/m 0 min 0 min 0 W/m 22,5 km/h (4 Bft) 95,65 %
03.12.2021 22:00 4,6 C 3,9 C 1,7 C 87 % 1003,6 hPa 0,0 l/m 0 min 0 min 0 W/m 25,7 km/h (4 Bft) 97,87 %
03.12.2021 22:02 4,6 C 3,9 C 1,7 C 87 % 1003,6 hPa 0,0 l/m 0 min 0 min 0 W/m 25,7 km/h (4 Bft) 97,92 %
03.12.2021 22:04 4,6 C 3,9 C 1,7 C 87 % 1003,6 hPa 0,0 l/m 0 min 0 min 0 W/m 16,1 km/h (3 Bft) 95,74 %
03.12.2021 22:06 4,6 C 3,9 C 1,7 C 87 % 1003,6 hPa 0,0 l/m 0 min 0 min 0 W/m 16,1 km/h (3 Bft) 93,62 %
03.12.2021 22:08 4,6 C 3,9 C 1,7 C 87 % 1003,6 hPa 0,0 l/m 0 min 0 min 0 W/m 22,5 km/h (4 Bft) 97,87 %
03.12.2021 22:10 4,6 C 3,9 C 1,1 C 87 % 1003,6 hPa 0,0 l/m 0 min 0 min 0 W/m 19,3 km/h (3 Bft) 97,83 %
03.12.2021 22:12 4,6 C 3,9 C 1,1 C 88 % 1003,5 hPa 0,0 l/m 0 min 0 min 0 W/m 19,3 km/h (3 Bft) 93,62 %
03.12.2021 22:14 4,6 C 3,9 C 1,1 C 88 % 1003,5 hPa 0,0 l/m 0 min 0 min 0 W/m 19,3 km/h (3 Bft) 97,87 %
03.12.2021 22:16 4,5 C 3,9 C 1,1 C 88 % 1003,4 hPa 0,0 l/m 0 min 0 min 0 W/m 16,1 km/h (3 Bft) 97,87 %
03.12.2021 22:18 4,5 C 3,9 C 1,1 C 88 % 1003,4 hPa 0,0 l/m 0 min 0 min 0 W/m 32,2 km/h (5 Bft) 97,87 %
03.12.2021 22:20 4,5 C 3,3 C 1,1 C 89 % 1003,4 hPa 0,0 l/m 0 min 0 min 0 W/m 19,3 km/h (3 Bft) 97,87 %
03.12.2021 22:22 4,4 C 3,3 C 1,1 C 89 % 1003,4 hPa 0,0 l/m 0 min 0 min 0 W/m 12,9 km/h (3 Bft) 95,65 %
03.12.2021 22:24 4,4 C 3,3 C 1,1 C 89 % 1003,4 hPa 0,0 l/m 0 min 0 min 0 W/m 12,9 km/h (3 Bft) 97,87 %
03.12.2021 22:26 4,4 C 3,3 C 1,1 C 90 % 1003,4 hPa 0,2 l/m 0 min 0 min 0 W/m 16,1 km/h (3 Bft) 95,74 %
03.12.2021 22:28 4,4 C 3,3 C 1,1 C 90 % 1003,2 hPa 0,0 l/m 0 min 0 min 0 W/m 9,7 km/h (2 Bft) 100,00 %
03.12.2021 22:30 4,3 C 3,3 C 0,6 C 90 % 1003,2 hPa 0,0 l/m 0 min 0 min 0 W/m 12,9 km/h (3 Bft) 100,00 %
03.12.2021 22:32 4,3 C 3,3 C 0,6 C 90 % 1003,1 hPa 0,0 l/m 0 min 0 min 0 W/m 16,1 km/h (3 Bft) 97,87 %
03.12.2021 22:34 4,3 C 3,3 C 0,6 C 90 % 1003,1 hPa 0,0 l/m 0 min 0 min 0 W/m 16,1 km/h (3 Bft) 100,00 %
03.12.2021 22:36 4,2 C 3,3 C 0,6 C 91 % 1003,1 hPa 0,0 l/m 0 min 0 min 0 W/m 16,1 km/h (3 Bft) 97,87 %
03.12.2021 22:38 4,2 C 3,3 C 0,6 C 91 % 1003,1 hPa 0,0 l/m 0 min 0 min 0 W/m 12,9 km/h (3 Bft) 97,87 %
03.12.2021 22:40 4,1 C 3,3 C 0,6 C 91 % 1003,1 hPa 0,0 l/m 0 min 0 min 0 W/m 16,1 km/h (3 Bft) 95,74 %
03.12.2021 22:42 4,1 C 3,3 C 0,6 C 91 % 1003,0 hPa 0,0 l/m 0 min 0 min 0 W/m 12,9 km/h (3 Bft) 95,74 %
03.12.2021 22:44 4,1 C 3,3 C 0,6 C 91 % 1003,0 hPa 0,0 l/m 0 min 0 min 0 W/m 9,7 km/h (2 Bft) 97,83 %
03.12.2021 22:46 4,1 C 3,3 C 0,6 C 91 % 1003,0 hPa 0,0 l/m 0 min 0 min 0 W/m 12,9 km/h (3 Bft) 97,87 %
03.12.2021 22:48 4,1 C 3,3 C 0,6 C 91 % 1003,0 hPa 0,0 l/m 0 min 0 min 0 W/m 12,9 km/h (3 Bft) 97,87 %
03.12.2021 22:50 4,0 C 3,3 C 0,6 C 92 % 1002,9 hPa 0,0 l/m 0 min 0 min 0 W/m 16,1 km/h (3 Bft) 97,87 %
03.12.2021 22:52 4,0 C 3,3 C 1,1 C 91 % 1002,9 hPa 0,0 l/m 0 min 0 min 0 W/m 19,3 km/h (3 Bft) 54,55 %
03.12.2021 22:54 4,0 C 3,3 C 1,1 C 92 % 1002,9 hPa 0,0 l/m 0 min 0 min 0 W/m 9,7 km/h (2 Bft) 97,87 %
03.12.2021 22:56 4,0 C 3,3 C 1,1 C 92 % 1002,9 hPa 0,0 l/m 0 min 0 min 0 W/m 6,4 km/h (2 Bft) 97,83 %
03.12.2021 22:58 4,0 C 3,3 C 1,1 C 92 % 1002,9 hPa 0,0 l/m 0 min 0 min 0 W/m 9,7 km/h (2 Bft) 97,87 %
03.12.2021 23:00 4,0 C 3,3 C 1,1 C 92 % 1002,9 hPa 0,0 l/m 0 min 0 min 0 W/m 9,7 km/h (2 Bft) 97,87 %
03.12.2021 23:02 4,0 C 3,3 C 1,1 C 92 % 1002,8 hPa 0,0 l/m 0 min 0 min 0 W/m 9,7 km/h (2 Bft) 95,74 %
03.12.2021 23:04 4,0 C 3,3 C 1,1 C 92 % 1002,9 hPa 0,0 l/m 0 min 0 min 0 W/m 6,4 km/h (2 Bft) 97,87 %
03.12.2021 23:06 4,0 C 3,3 C 1,1 C 92 % 1002,9 hPa 0,0 l/m 0 min 0 min 0 W/m 6,4 km/h (2 Bft) 95,74 %
03.12.2021 23:08 4,0 C 3,3 C 1,1 C 92 % 1002,9 hPa 0,0 l/m 0 min 0 min 0 W/m 6,4 km/h (2 Bft) 97,83 %
03.12.2021 23:10 4,0 C 3,3 C 1,1 C 92 % 1002,9 hPa 0,0 l/m 0 min 0 min 0 W/m 6,4 km/h (2 Bft) 97,87 %
03.12.2021 23:12 4,0 C 3,3 C 1,1 C 92 % 1002,8 hPa 0,0 l/m 0 min 0 min 0 W/m 6,4 km/h (2 Bft) 95,74 %
03.12.2021 23:14 4,0 C 3,3 C 1,1 C 92 % 1002,8 hPa 0,0 l/m 0 min 0 min 0 W/m 6,4 km/h (2 Bft) 97,87 %
03.12.2021 23:16 4,0 C 3,3 C 1,1 C 92 % 1002,8 hPa 0,0 l/m 0 min 0 min 0 W/m 12,9 km/h (3 Bft) 100,00 %
03.12.2021 23:18 4,0 C 3,3 C 1,1 C 92 % 1002,8 hPa 0,0 l/m 0 min 0 min 0 W/m 16,1 km/h (3 Bft) 100,00 %
03.12.2021 23:20 4,0 C 3,3 C 1,1 C 92 % 1002,7 hPa 0,0 l/m 0 min 0 min 0 W/m 6,4 km/h (2 Bft) 100,00 %
03.12.2021 23:22 4,0 C 3,3 C 1,1 C 92 % 1002,6 hPa 0,0 l/m 0 min 0 min 0 W/m 6,4 km/h (2 Bft) 97,87 %
03.12.2021 23:24 4,0 C 3,3 C 1,1 C 93 % 1002,6 hPa 0,0 l/m 0 min 0 min 0 W/m 12,9 km/h (3 Bft) 100,00 %
03.12.2021 23:26 4,0 C 3,3 C 1,1 C 93 % 1002,6 hPa 0,0 l/m 0 min 0 min 0 W/m 9,7 km/h (2 Bft) 100,00 %
03.12.2021 23:28 4,0 C 3,3 C 1,1 C 92 % 1002,6 hPa 0,0 l/m 0 min 0 min 0 W/m 16,1 km/h (3 Bft) 100,00 %
03.12.2021 23:30 4,0 C 3,3 C 1,1 C 92 % 1002,6 hPa 0,0 l/m 0 min 0 min 0 W/m 3,2 km/h (1 Bft) 100,00 %
03.12.2021 23:32 3,9 C 3,3 C 1,1 C 92 % 1002,6 hPa 0,0 l/m 0 min 0 min 0 W/m 12,9 km/h (3 Bft) 95,65 %
03.12.2021 23:34 3,9 C 3,3 C 1,1 C 93 % 1002,7 hPa 0,0 l/m 0 min 0 min 0 W/m 12,9 km/h (3 Bft) 97,87 %
03.12.2021 23:36 3,9 C 3,3 C 1,1 C 93 % 1002,7 hPa 0,0 l/m 0 min 0 min 0 W/m 6,4 km/h (2 Bft) 97,87 %
03.12.2021 23:38 3,9 C 3,3 C 1,1 C 93 % 1002,7 hPa 0,0 l/m 0 min 0 min 0 W/m 6,4 km/h (2 Bft) 97,87 %
03.12.2021 23:40 3,9 C 3,3 C 1,1 C 93 % 1002,7 hPa 0,0 l/m 0 min 0 min 0 W/m 9,7 km/h (2 Bft) 95,74 %
03.12.2021 23:42 3,9 C 3,3 C 1,1 C 93 % 1002,7 hPa 0,0 l/m 0 min 0 min 0 W/m 6,4 km/h (2 Bft) 97,87 %
03.12.2021 23:44 3,9 C 3,3 C 1,1 C 93 % 1002,6 hPa 0,0 l/m 0 min 0 min 0 W/m 12,9 km/h (3 Bft) 97,83 %
03.12.2021 23:46 3,9 C 3,3 C 1,1 C 93 % 1002,6 hPa 0,0 l/m 0 min 0 min 0 W/m 6,4 km/h (2 Bft) 97,87 %
03.12.2021 23:48 3,9 C 3,3 C 1,1 C 93 % 1002,6 hPa 0,0 l/m 0 min 0 min 0 W/m 3,2 km/h (1 Bft) 95,74 %
03.12.2021 23:50 3,9 C 3,3 C 1,1 C 93 % 1002,6 hPa 0,0 l/m 0 min 0 min 0 W/m 6,4 km/h (2 Bft) 93,62 %
03.12.2021 23:52 3,9 C 3,3 C 1,1 C 93 % 1002,6 hPa 0,0 l/m 0 min 0 min 0 W/m 3,2 km/h (1 Bft) 95,74 %
03.12.2021 23:54 3,9 C 3,3 C 1,1 C 93 % 1002,6 hPa 0,0 l/m 0 min 0 min 0 W/m 6,4 km/h (2 Bft) 93,62 %
03.12.2021 23:56 3,9 C 3,3 C 1,1 C 93 % 1002,7 hPa 0,0 l/m 0 min 0 min 0 W/m 6,4 km/h (2 Bft) 95,65 %
03.12.2021 23:58 3,9 C 2,8 C 1,1 C 93 % 1002,6 hPa 0,0 l/m 0 min 2 min 0 W/m 9,7 km/h (2 Bft) 95,74 %
_ Min-Zeit 00:26 00:00 00:00 14:40 23:22 - - - - 00:00 20:46
Minimum _ -0,7 C -1,7 C -2,2 C 80 % 1002,6 hPa - - - - 0,0 km/h (0 Bft) 44,74 %
_ Max-Zeit 14:36 13:24 11:04 03:24 04:14 03:16 00:00 23:58 13:46 13:32 00:32
Maximum _ 4,9 C 4,4 C 2,2 C 97 % 1012,0 hPa 0,2 l/m 0 min 2 min 113 W/m 48,3 km/h
SO (6 Bft)
100,00 %
Durchschnitt _ 2,8 C 2,4 C 0,8 C 90 % 1008,6 hPa #0,4 l/m #0 min. #2 min. 57 W/m 18,6 km/h (3 Bft) 97,25 %
© 2021 W. Hausmann